Observation data for Weinert on 02/14/2020      Previous  Date  Next       Current Mesonet Observations  Soil Data  Daily Summary Page  Observations in Plain Language
KWE1 140600Z 07005KT M02/M08 A3039 RMK A01 T10241075  RH  068%=      5-min Rain = 0
KWE1 140601Z 06005KT M03/M07 A3039 RMK A01 T10251074  RH  069%=      5-min Rain = 0
KWE1 140602Z 07006KT M03/M07 A3039 RMK A01 T10251074  RH  069%=      5-min Rain = 0
KWE1 140603Z 07008KT M02/M08 A3039 RMK A01 T10241076  RH  068%=      5-min Rain = 0
KWE1 140604Z 06006KT M02/M08 A3039 RMK A01 T10221077  RH  066%=      5-min Rain = 0
KWE1 140605Z 07005KT M02/M08 A3039 RMK A01 T10211076  RH  066%=      5-min Rain = 0
KWE1 140606Z 07005KT M02/M08 A3039 RMK A01 T10221075  RH  067%=      5-min Rain = 0
KWE1 140607Z 07004KT M02/M08 A3039 RMK A01 T10231075  RH  067%=      5-min Rain = 0
KWE1 140608Z 08005KT M02/M08 A3039 RMK A01 T10241075  RH  068%=      5-min Rain = 0
KWE1 140609Z 08006KT M02/M08 A3039 RMK A01 T10241076  RH  068%=      5-min Rain = 0
KWE1 140610Z 07007KT M02/M08 A3039 RMK A01 T10241077  RH  067%=      5-min Rain = 0
KWE1 140611Z 06004KT M02/M08 A3039 RMK A01 T10241077  RH  067%=      5-min Rain = 0
KWE1 140612Z 07006KT M02/M08 A3039 RMK A01 T10231077  RH  067%=      5-min Rain = 0
KWE1 140613Z 05004KT M02/M08 A3039 RMK A01 T10221077  RH  066%=      5-min Rain = 0
KWE1 140614Z 05004KT M02/M08 A3039 RMK A01 T10221076  RH  067%=      5-min Rain = 0
KWE1 140615Z 06005KT M02/M08 A3039 RMK A01 T10231076  RH  067%=      5-min Rain = 0
KWE1 140616Z 06004KT M02/M08 A3039 RMK A01 T10231075  RH  068%=      5-min Rain = 0
KWE1 140617Z 06004KT M02/M07 A3039 RMK A01 T10241074  RH  069%=      5-min Rain = 0
KWE1 140618Z 06004KT M03/M07 A3039 RMK A01 T10251074  RH  069%=      5-min Rain = 0
KWE1 140619Z 06005KT M03/M07 A3039 RMK A01 T10261074  RH  069%=      5-min Rain = 0
KWE1 140620Z 06005KT M03/M07 A3039 RMK A01 T10251074  RH  069%=      5-min Rain = 0
KWE1 140621Z 06006KT M03/M07 A3039 RMK A01 T10261074  RH  069%=      5-min Rain = 0
KWE1 140622Z 07007KT M03/M08 A3039 RMK A01 T10261075  RH  069%=      5-min Rain = 0
KWE1 140623Z 06007KT M03/M08 A3039 RMK A01 T10251076  RH  068%=      5-min Rain = 0
KWE1 140624Z 06005KT M02/M08 A3039 RMK A01 T10241076  RH  067%=      5-min Rain = 0
KWE1 140625Z 07007KT M02/M08 A3039 RMK A01 T10241076  RH  068%=      5-min Rain = 0
KWE1 140626Z 06005KT M02/M08 A3039 RMK A01 T10241076  RH  067%=      5-min Rain = 0
KWE1 140627Z 07005KT M02/M08 A3039 RMK A01 T10241076  RH  067%=      5-min Rain = 0
KWE1 140628Z 07005KT M02/M08 A3039 RMK A01 T10241077  RH  067%=      5-min Rain = 0
KWE1 140629Z 07005KT M02/M08 A3039 RMK A01 T10241077  RH  067%=      5-min Rain = 0
KWE1 140630Z 07005KT M03/M08 A3039 RMK A01 T10251078  RH  067%=      5-min Rain = 0
KWE1 140631Z 07004KT M03/M08 A3039 RMK A01 T10251078  RH  067%=      5-min Rain = 0
KWE1 140632Z 07006KT M03/M08 A3039 RMK A01 T10251077  RH  068%=      5-min Rain = 0
KWE1 140633Z 07005KT M03/M08 A3039 RMK A01 T10251077  RH  068%=      5-min Rain = 0
KWE1 140634Z 06005KT M03/M08 A3039 RMK A01 T10251077  RH  068%=      5-min Rain = 0
KWE1 140635Z 07006KT M03/M08 A3039 RMK A01 T10251077  RH  067%=      5-min Rain = 0
KWE1 140636Z 07005KT M02/M08 A3039 RMK A01 T10241078  RH  067%=      5-min Rain = 0
KWE1 140637Z 08004KT M02/M08 A3039 RMK A01 T10241078  RH  066%=      5-min Rain = 0
KWE1 140638Z 09006KT M02/M08 A3039 RMK A01 T10241077  RH  067%=      5-min Rain = 0
KWE1 140639Z 07006G11KT M02/M08 A3039 RMK A01 T10241078  RH  066%=      5-min Rain = 0
KWE1 140640Z 07008KT M02/M08 A3039 RMK A01 T10241079  RH  066%=      5-min Rain = 0
KWE1 140641Z 08008KT M02/M08 A3039 RMK A01 T10221080  RH  064%=      5-min Rain = 0
KWE1 140642Z 07006KT M02/M08 A3039 RMK A01 T10211081  RH  063%=      5-min Rain = 0
KWE1 140643Z 06005KT M02/M08 A3039 RMK A01 T10201080  RH  064%=      5-min Rain = 0
KWE1 140644Z 06005KT M02/M08 A3039 RMK A01 T10211079  RH  065%=      5-min Rain = 0
KWE1 140645Z 07006KT M02/M08 A3039 RMK A01 T10221079  RH  065%=      5-min Rain = 0
KWE1 140646Z 06005KT M02/M08 A3039 RMK A01 T10231078  RH  066%=      5-min Rain = 0
KWE1 140647Z 08006KT M02/M08 A3039 RMK A01 T10231078  RH  066%=      5-min Rain = 0
KWE1 140648Z 07008KT M02/M08 A3039 RMK A01 T10241079  RH  066%=      5-min Rain = 0
KWE1 140649Z 07007KT M02/M08 A3039 RMK A01 T10231080  RH  065%=      5-min Rain = 0
KWE1 140650Z 07006KT M02/M08 A3039 RMK A01 T10221080  RH  064%=      5-min Rain = 0
KWE1 140651Z 06005KT M02/M08 A3039 RMK A01 T10221079  RH  065%=      5-min Rain = 0
KWE1 140652Z 07004KT M02/M08 A3039 RMK A01 T10231078  RH  066%=      5-min Rain = 0
KWE1 140653Z 06005KT M02/M08 A3039 RMK A01 T10241076  RH  067%=      5-min Rain = 0
KWE1 140654Z 08008KT M03/M08 A3039 RMK A01 T10251076  RH  068%=      5-min Rain = 0
KWE1 140655Z 07007KT M03/M08 A3039 RMK A01 T10251077  RH  068%=      5-min Rain = 0
KWE1 140656Z 07008KT M02/M08 A3039 RMK A01 T10241078  RH  066%=      5-min Rain = 0
KWE1 140657Z 06007KT M02/M08 A3039 RMK A01 T10221079  RH  065%=      5-min Rain = 0
KWE1 140658Z 06005KT M02/M08 A3039 RMK A01 T10221078  RH  065%=      5-min Rain = 0
KWE1 140659Z 06005KT M02/M08 A3039 RMK A01 T10231078  RH  066%=      5-min Rain = 0
KWE1 140700Z 05004KT M02/M08 A3039 RMK A01 T10241077  RH  067%=      5-min Rain = 0
KWE1 140701Z 06004KT M03/M08 A3039 RMK A01 T10251076  RH  068%=      5-min Rain = 0
KWE1 140702Z 06004KT M03/M08 A3039 RMK A01 T10261076  RH  068%=      5-min Rain = 0
KWE1 140703Z 06006KT M03/M08 A3039 RMK A01 T10271076  RH  069%=      5-min Rain = 0
KWE1 140704Z 06005KT M03/M08 A3039 RMK A01 T10271075  RH  069%=      5-min Rain = 0
KWE1 140705Z 06006KT M03/M08 A3039 RMK A01 T10271075  RH  069%=      5-min Rain = 0
KWE1 140706Z 06006KT M03/M08 A3039 RMK A01 T10271075  RH  069%=      5-min Rain = 0
KWE1 140707Z 06006KT M03/M08 A3039 RMK A01 T10261075  RH  069%=      5-min Rain = 0
KWE1 140708Z 06005KT M03/M08 A3039 RMK A01 T10261075  RH  069%=      5-min Rain = 0
KWE1 140709Z 05006KT M03/M08 A3039 RMK A01 T10261075  RH  069%=      5-min Rain = 0
KWE1 140710Z 07005KT M03/M08 A3039 RMK A01 T10271076  RH  069%=      5-min Rain = 0
KWE1 140711Z 06005KT M03/M08 A3039 RMK A01 T10261075  RH  069%=      5-min Rain = 0
KWE1 140712Z 06005KT M03/M08 A3039 RMK A01 T10271075  RH  070%=      5-min Rain = 0
KWE1 140713Z 06005KT M03/M07 A3039 RMK A01 T10271074  RH  070%=      5-min Rain = 0
KWE1 140714Z 06005KT M03/M07 A3039 RMK A01 T10281074  RH  070%=      5-min Rain = 0
KWE1 140715Z 06006KT M03/M07 A3039 RMK A01 T10281074  RH  071%=      5-min Rain = 0
KWE1 140716Z 06005KT M03/M07 A3039 RMK A01 T10281074  RH  071%=      5-min Rain = 0
KWE1 140717Z 06005KT M03/M07 A3039 RMK A01 T10281074  RH  071%=      5-min Rain = 0
KWE1 140718Z 07005KT M03/M07 A3039 RMK A01 T10281074  RH  071%=      5-min Rain = 0
KWE1 140719Z 07006KT M03/M07 A3039 RMK A01 T10281074  RH  071%=      5-min Rain = 0
KWE1 140720Z 08005KT M03/M07 A3039 RMK A01 T10281074  RH  071%=      5-min Rain = 0
KWE1 140721Z 07006KT M03/M08 A3039 RMK A01 T10281075  RH  070%=      5-min Rain = 0
KWE1 140722Z 07005KT M03/M08 A3039 RMK A01 T10281075  RH  070%=      5-min Rain = 0
KWE1 140723Z 06006KT M03/M08 A3039 RMK A01 T10291075  RH  070%=      5-min Rain = 0
KWE1 140724Z 07005KT M03/M08 A3039 RMK A01 T10291076  RH  070%=      5-min Rain = 0
KWE1 140725Z 07006KT M03/M08 A3039 RMK A01 T10281076  RH  069%=      5-min Rain = 0
KWE1 140726Z 07005KT M03/M08 A3039 RMK A01 T10271077  RH  069%=      5-min Rain = 0
KWE1 140727Z 08006KT M03/M08 A3039 RMK A01 T10271077  RH  069%=      5-min Rain = 0
KWE1 140728Z 08004KT M03/M08 A3039 RMK A01 T10271077  RH  069%=      5-min Rain = 0
KWE1 140729Z 08007KT M03/M08 A3039 RMK A01 T10271076  RH  069%=      5-min Rain = 0
KWE1 140730Z 08007KT M03/M08 A3039 RMK A01 T10281077  RH  069%=      5-min Rain = 0
KWE1 140731Z 08004KT M03/M08 A3039 RMK A01 T10271077  RH  068%=      5-min Rain = 0
KWE1 140732Z 08004KT M03/M08 A3039 RMK A01 T10261076  RH  069%=      5-min Rain = 0
KWE1 140733Z 09005KT M03/M08 A3039 RMK A01 T10271076  RH  069%=      5-min Rain = 0
KWE1 140734Z 11004KT M03/M08 A3039 RMK A01 T10271077  RH  068%=      5-min Rain = 0
KWE1 140735Z 10004KT M03/M08 A3039 RMK A01 T10271076  RH  069%=      5-min Rain = 0
KWE1 140736Z 10004KT M03/M07 A3039 RMK A01 T10271074  RH  070%=      5-min Rain = 0
KWE1 140737Z 10004KT M03/M08 A3039 RMK A01 T10281075  RH  070%=      5-min Rain = 0
KWE1 140738Z 10004KT M03/M07 A3039 RMK A01 T10281074  RH  070%=      5-min Rain = 0
KWE1 140739Z 10004KT M03/M08 A3039 RMK A01 T10281075  RH  070%=      5-min Rain = 0
KWE1 140740Z 10005KT M03/M07 A3039 RMK A01 T10291074  RH  071%=      5-min Rain = 0
KWE1 140741Z 09004KT M03/M08 A3039 RMK A01 T10291075  RH  071%=      5-min Rain = 0
KWE1 140742Z 10005KT M03/M08 A3039 RMK A01 T10291075  RH  071%=      5-min Rain = 0
KWE1 140743Z 10004KT M03/M08 A3039 RMK A01 T10291076  RH  070%=      5-min Rain = 0
KWE1 140744Z 10006KT M03/M08 A3039 RMK A01 T10291076  RH  070%=      5-min Rain = 0
KWE1 140745Z 10006KT M03/M08 A3039 RMK A01 T10291076  RH  070%=      5-min Rain = 0
KWE1 140746Z 10005KT M03/M08 A3039 RMK A01 T10291076  RH  070%=      5-min Rain = 0
KWE1 140747Z 10006KT M03/M08 A3039 RMK A01 T10291076  RH  070%=      5-min Rain = 0
KWE1 140748Z 10005KT M03/M08 A3039 RMK A01 T10291075  RH  070%=      5-min Rain = 0
KWE1 140749Z 09005KT M03/M08 A3039 RMK A01 T10291075  RH  071%=      5-min Rain = 0
KWE1 140750Z 09006KT M03/M08 A3039 RMK A01 T10291075  RH  071%=      5-min Rain = 0
KWE1 140751Z 09006KT M03/M08 A3039 RMK A01 T10291075  RH  071%=      5-min Rain = 0
KWE1 140752Z 09005KT M03/M08 A3039 RMK A01 T10301075  RH  071%=      5-min Rain = 0
KWE1 140753Z 10006KT M03/M08 A3039 RMK A01 T10301075  RH  071%=      5-min Rain = 0
KWE1 140754Z 09006KT M03/M08 A3039 RMK A01 T10301075  RH  071%=      5-min Rain = 0
KWE1 140755Z 09006KT M03/M08 A3039 RMK A01 T10301075  RH  071%=      5-min Rain = 0
KWE1 140756Z 09006KT M03/M08 A3039 RMK A01 T10301075  RH  071%=      5-min Rain = 0
KWE1 140757Z 09005KT M03/M08 A3039 RMK A01 T10301075  RH  071%=      5-min Rain = 0
KWE1 140758Z 09005KT M03/M08 A3039 RMK A01 T10301075  RH  071%=      5-min Rain = 0
KWE1 140759Z 09006KT M03/M08 A3039 RMK A01 T10301075  RH  071%=      5-min Rain = 0
KWE1 140800Z 09005KT M03/M08 A3039 RMK A01 T10301075  RH  071%=      5-min Rain = 0
KWE1 140801Z 09005KT M03/M07 A3039 RMK A01 T10301074  RH  071%=      5-min Rain = 0
KWE1 140802Z 09006KT M03/M07 A3039 RMK A01 T10301074  RH  072%=      5-min Rain = 0
KWE1 140803Z 09006KT M03/M07 A3039 RMK A01 T10301074  RH  072%=      5-min Rain = 0
KWE1 140804Z 09006KT M03/M07 A3039 RMK A01 T10301074  RH  072%=      5-min Rain = 0
KWE1 140805Z 09006KT M03/M07 A3039 RMK A01 T10301074  RH  072%=      5-min Rain = 0
KWE1 140806Z 09006KT M03/M07 A304 RMK A01 T10301074  RH  072%=      5-min Rain = 0
KWE1 140807Z 10005KT M03/M07 A304 RMK A01 T10301074  RH  072%=      5-min Rain = 0
KWE1 140808Z 10005KT M03/M07 A304 RMK A01 T10301074  RH  071%=      5-min Rain = 0
KWE1 140809Z 10005KT M03/M07 A304 RMK A01 T10301074  RH  071%=      5-min Rain = 0
KWE1 140810Z 10005KT M03/M07 A304 RMK A01 T10301074  RH  071%=      5-min Rain = 0
KWE1 140811Z 10006KT M03/M07 A304 RMK A01 T10301074  RH  071%=      5-min Rain = 0
KWE1 140812Z 10006KT M03/M08 A304 RMK A01 T10301075  RH  071%=      5-min Rain = 0
KWE1 140813Z 10005KT M03/M08 A304 RMK A01 T10301075  RH  071%=      5-min Rain = 0
KWE1 140814Z 10005KT M03/M08 A304 RMK A01 T10301075  RH  071%=      5-min Rain = 0
KWE1 140815Z 10005KT M03/M08 A304 RMK A01 T10301075  RH  071%=      5-min Rain = 0
KWE1 140816Z 11004KT M03/M08 A304 RMK A01 T10311075  RH  071%=      5-min Rain = 0
KWE1 140817Z 11004KT M03/M08 A304 RMK A01 T10311075  RH  071%=      5-min Rain = 0
KWE1 140818Z 11005KT M03/M08 A304 RMK A01 T10301075  RH  071%=      5-min Rain = 0
KWE1 140819Z 10004KT M03/M08 A304 RMK A01 T10311075  RH  071%=      5-min Rain = 0
KWE1 140820Z 10004KT M03/M08 A304 RMK A01 T10301075  RH  072%=      5-min Rain = 0
KWE1 140821Z 11005KT M03/M07 A304 RMK A01 T10311074  RH  072%=      5-min Rain = 0
KWE1 140822Z 10005KT M03/M07 A304 RMK A01 T10311074  RH  072%=      5-min Rain = 0
KWE1 140823Z 09004KT M03/M07 A304 RMK A01 T10321074  RH  072%=      5-min Rain = 0
KWE1 140824Z 09003KT M03/M08 A304 RMK A01 T10321075  RH  073%=      5-min Rain = 0
KWE1 140825Z 10003KT M03/M07 A304 RMK A01 T10331074  RH  073%=      5-min Rain = 0
KWE1 140826Z 09004KT M03/M07 A304 RMK A01 T10331074  RH  073%=      5-min Rain = 0
KWE1 140827Z 09004KT M03/M08 A304 RMK A01 T10331075  RH  073%=      5-min Rain = 0
KWE1 140828Z 09004KT M03/M08 A304 RMK A01 T10331075  RH  073%=      5-min Rain = 0
KWE1 140829Z 09004KT M03/M08 A304 RMK A01 T10341075  RH  073%=      5-min Rain = 0
KWE1 140830Z 08004KT M03/M08 A304 RMK A01 T10341075  RH  073%=      5-min Rain = 0
KWE1 140831Z 08004KT M03/M08 A304 RMK A01 T10341076  RH  073%=      5-min Rain = 0
KWE1 140832Z 08005KT M03/M08 A304 RMK A01 T10341075  RH  073%=      5-min Rain = 0
KWE1 140833Z 08004KT M03/M08 A304 RMK A01 T10341075  RH  073%=      5-min Rain = 0
KWE1 140834Z 09003KT M03/M08 A304 RMK A01 T10331075  RH  073%=      5-min Rain = 0
KWE1 140835Z 08004KT M03/M08 A304 RMK A01 T10331075  RH  073%=      5-min Rain = 0
KWE1 140836Z 07004KT M03/M08 A304 RMK A01 T10331075  RH  073%=      5-min Rain = 0
KWE1 140837Z 07003KT M03/M08 A304 RMK A01 T10331075  RH  073%=      5-min Rain = 0
KWE1 140838Z 05003KT M03/M07 A304 RMK A01 T10331074  RH  073%=      5-min Rain = 0
KWE1 140839Z 06002KT M03/M08 A304 RMK A01 T10341075  RH  073%=      5-min Rain = 0
KWE1 140840Z 05002KT M03/M08 A304 RMK A01 T10341075  RH  073%=      5-min Rain = 0
KWE1 140841Z 04002KT M03/M08 A304 RMK A01 T10341075  RH  073%=      5-min Rain = 0
KWE1 140842Z 04002KT M04/M08 A304 RMK A01 T10351075  RH  074%=      5-min Rain = 0
KWE1 140843Z 05003KT M04/M07 A304 RMK A01 T10351074  RH  074%=      5-min Rain = 0
KWE1 140844Z 06003KT M04/M07 A304 RMK A01 T10361074  RH  075%=      5-min Rain = 0
KWE1 140845Z 05003KT M04/M07 A304 RMK A01 T10361073  RH  075%=      5-min Rain = 0
KWE1 140846Z 04003KT M04/M07 A304 RMK A01 T10351073  RH  075%=      5-min Rain = 0
KWE1 140847Z 05004KT M04/M07 A304 RMK A01 T10361073  RH  075%=      5-min Rain = 0
KWE1 140848Z 05003KT M04/M07 A304 RMK A01 T10361074  RH  075%=      5-min Rain = 0
KWE1 140849Z 05003KT M04/M07 A304 RMK A01 T10361074  RH  075%=      5-min Rain = 0
KWE1 140850Z 05003KT M04/M07 A304 RMK A01 T10361074  RH  075%=      5-min Rain = 0
KWE1 140851Z 05003KT M04/M07 A304 RMK A01 T10361073  RH  075%=      5-min Rain = 0
KWE1 140852Z 06003KT M04/M07 A304 RMK A01 T10371074  RH  075%=      5-min Rain = 0
KWE1 140853Z 06003KT M04/M07 A304 RMK A01 T10371074  RH  076%=      5-min Rain = 0
KWE1 140854Z 07004KT M04/M07 A304 RMK A01 T10371074  RH  076%=      5-min Rain = 0
KWE1 140855Z 06004KT M04/M07 A304 RMK A01 T10371074  RH  076%=      5-min Rain = 0
KWE1 140856Z 05003KT M04/M07 A304 RMK A01 T10381074  RH  076%=      5-min Rain = 0
KWE1 140857Z 06003KT M04/M07 A304 RMK A01 T10381074  RH  076%=      5-min Rain = 0
KWE1 140858Z 06004KT M04/M07 A304 RMK A01 T10381074  RH  076%=      5-min Rain = 0
KWE1 140859Z 06003KT M04/M07 A304 RMK A01 T10381074  RH  076%=      5-min Rain = 0
KWE1 140900Z 06004KT M04/M07 A304 RMK A01 T10381073  RH  076%=      5-min Rain = 0
KWE1 140901Z 06003KT M04/M07 A304 RMK A01 T10381073  RH  076%=      5-min Rain = 0
KWE1 140902Z 07003KT M04/M07 A304 RMK A01 T10381073  RH  076%=      5-min Rain = 0
KWE1 140903Z 06003KT M04/M07 A304 RMK A01 T10381073  RH  076%=      5-min Rain = 0
KWE1 140904Z 06004KT M04/M07 A304 RMK A01 T10381073  RH  077%=      5-min Rain = 0
KWE1 140905Z 05003KT M04/M07 A304 RMK A01 T10381073  RH  077%=      5-min Rain = 0
KWE1 140906Z 06004KT M04/M07 A304 RMK A01 T10381073  RH  076%=      5-min Rain = 0
KWE1 140907Z 06003KT M04/M07 A304 RMK A01 T10381074  RH  076%=      5-min Rain = 0
KWE1 140908Z 06004KT M04/M07 A304 RMK A01 T10381074  RH  076%=      5-min Rain = 0
KWE1 140909Z 06003KT M04/M07 A304 RMK A01 T10381074  RH  076%=      5-min Rain = 0
KWE1 140910Z 06003KT M04/M07 A304 RMK A01 T10381074  RH  076%=      5-min Rain = 0
KWE1 140911Z 06003KT M04/M07 A304 RMK A01 T10381074  RH  076%=      5-min Rain = 0
KWE1 140912Z 06004KT M04/M07 A304 RMK A01 T10381074  RH  076%=      5-min Rain = 0
KWE1 140913Z 06003KT M04/M07 A304 RMK A01 T10381074  RH  076%=      5-min Rain = 0
KWE1 140914Z 06003KT M04/M07 A304 RMK A01 T10381074  RH  076%=      5-min Rain = 0
KWE1 140915Z 05004KT M04/M07 A304 RMK A01 T10381074  RH  076%=      5-min Rain = 0
KWE1 140916Z 05004KT M04/M07 A304 RMK A01 T10371074  RH  076%=      5-min Rain = 0
KWE1 140917Z 05004KT M04/M07 A304 RMK A01 T10371074  RH  075%=      5-min Rain = 0
KWE1 140918Z 05005KT M04/M07 A304 RMK A01 T10361074  RH  075%=      5-min Rain = 0
KWE1 140919Z 04005KT M04/M07 A304 RMK A01 T10361074  RH  075%=      5-min Rain = 0
KWE1 140920Z 05005KT M04/M07 A304 RMK A01 T10361074  RH  075%=      5-min Rain = 0
KWE1 140921Z 04004KT M04/M07 A3039 RMK A01 T10361074  RH  075%=      5-min Rain = 0
KWE1 140922Z 05004KT M04/M07 A3039 RMK A01 T10361074  RH  075%=      5-min Rain = 0
KWE1 140923Z 06004KT M04/M07 A3039 RMK A01 T10351074  RH  075%=      5-min Rain = 0
KWE1 140924Z 05004KT M04/M07 A3039 RMK A01 T10351074  RH  075%=      5-min Rain = 0
KWE1 140925Z 05004KT M04/M07 A3039 RMK A01 T10351074  RH  075%=      5-min Rain = 0
KWE1 140926Z 05003KT M04/M07 A3039 RMK A01 T10351073  RH  075%=      5-min Rain = 0
KWE1 140927Z 05003KT M04/M07 A3039 RMK A01 T10351074  RH  075%=      5-min Rain = 0
KWE1 140928Z 05004KT M04/M07 A3039 RMK A01 T10361074  RH  075%=      5-min Rain = 0
KWE1 140929Z 05003KT M04/M07 A304 RMK A01 T10361074  RH  075%=      5-min Rain = 0
KWE1 140930Z 04003KT M04/M07 A304 RMK A01 T10361074  RH  075%=      5-min Rain = 0
KWE1 140931Z 04003KT M04/M07 A304 RMK A01 T10361073  RH  075%=      5-min Rain = 0
KWE1 140932Z 04003KT M04/M07 A304 RMK A01 T10371073  RH  076%=      5-min Rain = 0
KWE1 140933Z 06003KT M04/M07 A304 RMK A01 T10371073  RH  076%=      5-min Rain = 0
KWE1 140934Z 05002KT M04/M07 A304 RMK A01 T10371073  RH  076%=      5-min Rain = 0
KWE1 140935Z 05003KT M04/M07 A304 RMK A01 T10381073  RH  076%=      5-min Rain = 0
KWE1 140936Z 05002KT M04/M07 A304 RMK A01 T10381073  RH  077%=      5-min Rain = 0
KWE1 140937Z 04002KT M04/M07 A304 RMK A01 T10381073  RH  077%=      5-min Rain = 0
KWE1 140938Z 05002KT M04/M07 A304 RMK A01 T10381073  RH  077%=      5-min Rain = 0
KWE1 140939Z 05003KT M04/M07 A304 RMK A01 T10381073  RH  077%=      5-min Rain = 0
KWE1 140940Z 05003KT M04/M07 A304 RMK A01 T10381073  RH  077%=      5-min Rain = 0
KWE1 140941Z 05002KT M04/M07 A304 RMK A01 T10381073  RH  077%=      5-min Rain = 0
KWE1 140942Z 05003KT M04/M07 A304 RMK A01 T10391073  RH  077%=      5-min Rain = 0
KWE1 140943Z 05003KT M04/M07 A304 RMK A01 T10381073  RH  077%=      5-min Rain = 0
KWE1 140944Z 05003KT M04/M07 A304 RMK A01 T10391073  RH  077%=      5-min Rain = 0
KWE1 140945Z 05003KT M04/M07 A304 RMK A01 T10391074  RH  077%=      5-min Rain = 0
KWE1 140946Z 05003KT M04/M07 A304 RMK A01 T10381074  RH  076%=      5-min Rain = 0
KWE1 140947Z 05004KT M04/M07 A304 RMK A01 T10381074  RH  076%=      5-min Rain = 0
KWE1 140948Z 05004KT M04/M07 A304 RMK A01 T10381074  RH  076%=      5-min Rain = 0
KWE1 140949Z 05004KT M04/M07 A304 RMK A01 T10381074  RH  076%=      5-min Rain = 0
KWE1 140950Z 04003KT M04/M07 A304 RMK A01 T10391074  RH  076%=      5-min Rain = 0
KWE1 140951Z 04003KT M04/M07 A304 RMK A01 T10381074  RH  076%=      5-min Rain = 0
KWE1 140952Z 04003KT M04/M08 A304 RMK A01 T10391075  RH  076%=      5-min Rain = 0
KWE1 140953Z 04003KT M04/M08 A304 RMK A01 T10391075  RH  076%=      5-min Rain = 0
KWE1 140954Z 04004KT M04/M08 A304 RMK A01 T10391075  RH  076%=      5-min Rain = 0
KWE1 140955Z 04003KT M04/M07 A304 RMK A01 T10391074  RH  076%=      5-min Rain = 0
KWE1 140956Z 04004KT M04/M07 A304 RMK A01 T10391074  RH  077%=      5-min Rain = 0
KWE1 140957Z 04004KT M04/M07 A304 RMK A01 T10401074  RH  077%=      5-min Rain = 0
KWE1 140958Z 04004KT M04/M07 A304 RMK A01 T10401074  RH  077%=      5-min Rain = 0
KWE1 140959Z 04004KT M04/M07 A304 RMK A01 T10401074  RH  078%=      5-min Rain = 0
KWE1 141000Z 05005KT M04/M07 A304 RMK A01 T10401074  RH  078%=      5-min Rain = 0
KWE1 141001Z 05004KT M04/M07 A304 RMK A01 T10401074  RH  077%=      5-min Rain = 0
KWE1 141002Z 05004KT M04/M07 A304 RMK A01 T10401074  RH  077%=      5-min Rain = 0
KWE1 141003Z 04004KT M04/M07 A304 RMK A01 T10401074  RH  077%=      5-min Rain = 0
KWE1 141004Z 05004KT M04/M07 A304 RMK A01 T10401074  RH  077%=      5-min Rain = 0
KWE1 141005Z 04004KT M04/M07 A304 RMK A01 T10401074  RH  077%=      5-min Rain = 0
KWE1 141006Z 05004KT M04/M07 A304 RMK A01 T10391073  RH  077%=      5-min Rain = 0
KWE1 141007Z 04004KT M04/M07 A304 RMK A01 T10391073  RH  077%=      5-min Rain = 0
KWE1 141008Z 04004KT M04/M07 A304 RMK A01 T10391073  RH  077%=      5-min Rain = 0
KWE1 141009Z 04004KT M04/M07 A304 RMK A01 T10401073  RH  077%=      5-min Rain = 0
KWE1 141010Z 04004KT M04/M07 A304 RMK A01 T10401073  RH  078%=      5-min Rain = 0
KWE1 141011Z 05004KT M04/M07 A304 RMK A01 T10401073  RH  078%=      5-min Rain = 0
KWE1 141012Z 05004KT M04/M07 A304 RMK A01 T10401073  RH  078%=      5-min Rain = 0
KWE1 141013Z 04004KT M04/M07 A304 RMK A01 T10401072  RH  078%=      5-min Rain = 0
KWE1 141014Z 05004KT M04/M07 A304 RMK A01 T10391072  RH  078%=      5-min Rain = 0
KWE1 141015Z 04004KT M04/M07 A304 RMK A01 T10391072  RH  078%=      5-min Rain = 0
KWE1 141016Z 04004KT M04/M07 A304 RMK A01 T10391072  RH  078%=      5-min Rain = 0
KWE1 141017Z 04004KT M04/M07 A304 RMK A01 T10391072  RH  078%=      5-min Rain = 0
KWE1 141018Z 05003KT M04/M07 A304 RMK A01 T10391072  RH  078%=      5-min Rain = 0
KWE1 141019Z 05003KT M04/M07 A304 RMK A01 T10391072  RH  078%=      5-min Rain = 0
KWE1 141020Z 05003KT M04/M07 A304 RMK A01 T10391072  RH  078%=      5-min Rain = 0
KWE1 141021Z 05004KT M04/M07 A304 RMK A01 T10391072  RH  078%=      5-min Rain = 0
KWE1 141022Z 05004KT M04/M07 A304 RMK A01 T10391072  RH  078%=      5-min Rain = 0
KWE1 141023Z 05004KT M04/M07 A304 RMK A01 T10391072  RH  078%=      5-min Rain = 0
KWE1 141024Z 05004KT M04/M07 A304 RMK A01 T10381072  RH  078%=      5-min Rain = 0
KWE1 141025Z 04004KT M04/M07 A304 RMK A01 T10381072  RH  078%=      5-min Rain = 0
KWE1 141026Z 05004KT M04/M07 A304 RMK A01 T10381072  RH  077%=      5-min Rain = 0
KWE1 141027Z 04003KT M04/M07 A304 RMK A01 T10381072  RH  078%=      5-min Rain = 0
KWE1 141028Z 05003KT M04/M07 A304 RMK A01 T10391072  RH  078%=      5-min Rain = 0
KWE1 141029Z 05002KT M04/M07 A304 RMK A01 T10391072  RH  078%=      5-min Rain = 0
KWE1 141030Z 05003KT M04/M07 A304 RMK A01 T10391072  RH  078%=      5-min Rain = 0
KWE1 141031Z 05003KT M04/M07 A304 RMK A01 T10391071  RH  078%=      5-min Rain = 0
KWE1 141032Z 05003KT M04/M07 A304 RMK A01 T10391071  RH  078%=      5-min Rain = 0
KWE1 141033Z 05003KT M04/M07 A304 RMK A01 T10391071  RH  079%=      5-min Rain = 0
KWE1 141034Z 05003KT M04/M07 A304 RMK A01 T10401071  RH  079%=      5-min Rain = 0
KWE1 141035Z 04004KT M04/M07 A304 RMK A01 T10401071  RH  079%=      5-min Rain = 0
KWE1 141036Z 04003KT M04/M07 A304 RMK A01 T10411071  RH  080%=      5-min Rain = 0
KWE1 141037Z 04003KT M04/M07 A304 RMK A01 T10411071  RH  080%=      5-min Rain = 0
KWE1 141038Z 04003KT M04/M07 A3041 RMK A01 T10411071  RH  080%=      5-min Rain = 0
KWE1 141039Z 04003KT M04/M07 A3041 RMK A01 T10401070  RH  080%=      5-min Rain = 0
KWE1 141040Z 04003KT M04/M07 A3041 RMK A01 T10401070  RH  080%=      5-min Rain = 0
KWE1 141041Z 04004KT M04/M07 A3041 RMK A01 T10401070  RH  080%=      5-min Rain = 0
KWE1 141042Z 04003KT M04/M07 A3041 RMK A01 T10401070  RH  080%=      5-min Rain = 0
KWE1 141043Z 04003KT M04/M07 A3041 RMK A01 T10401071  RH  079%=      5-min Rain = 0
KWE1 141044Z 04003KT M04/M07 A3041 RMK A01 T10401071  RH  079%=      5-min Rain = 0
KWE1 141045Z 04003KT M04/M07 A3041 RMK A01 T10401071  RH  079%=      5-min Rain = 0
KWE1 141046Z 05003KT M04/M07 A3041 RMK A01 T10401071  RH  080%=      5-min Rain = 0
KWE1 141047Z 04003KT M04/M07 A3041 RMK A01 T10411071  RH  080%=      5-min Rain = 0
KWE1 141048Z 04003KT M04/M07 A3041 RMK A01 T10411071  RH  080%=      5-min Rain = 0
KWE1 141049Z 04003KT M04/M07 A3041 RMK A01 T10411070  RH  080%=      5-min Rain = 0
KWE1 141050Z 04003KT M04/M07 A3041 RMK A01 T10411070  RH  080%=      5-min Rain = 0
KWE1 141051Z 04004KT M04/M07 A3041 RMK A01 T10411070  RH  080%=      5-min Rain = 0
KWE1 141052Z 04004KT M04/M07 A3041 RMK A01 T10411070  RH  080%=      5-min Rain = 0
KWE1 141053Z 04004KT M04/M07 A3041 RMK A01 T10411070  RH  080%=      5-min Rain = 0
KWE1 141054Z 04003KT M04/M07 A3041 RMK A01 T10411071  RH  080%=      5-min Rain = 0
KWE1 141055Z 05003KT M04/M07 A3041 RMK A01 T10411070  RH  080%=      5-min Rain = 0
KWE1 141056Z 04003KT M04/M07 A3041 RMK A01 T10411070  RH  080%=      5-min Rain = 0
KWE1 141057Z 05004KT M04/M07 A3041 RMK A01 T10411071  RH  080%=      5-min Rain = 0
KWE1 141058Z 05003KT M04/M07 A3041 RMK A01 T10411071  RH  080%=      5-min Rain = 0
KWE1 141059Z 04004KT M04/M07 A3041 RMK A01 T10411071  RH  080%=      5-min Rain = 0
KWE1 141100Z 05004KT M04/M07 A3041 RMK A01 T10411071  RH  079%=      5-min Rain = 0
KWE1 141101Z 05004KT M04/M07 A3041 RMK A01 T10411071  RH  079%=      5-min Rain = 0
KWE1 141102Z 05004KT M04/M07 A3041 RMK A01 T10411072  RH  079%=      5-min Rain = 0
KWE1 141103Z 05004KT M04/M07 A3041 RMK A01 T10411072  RH  079%=      5-min Rain = 0
KWE1 141104Z 05004KT M04/M07 A3041 RMK A01 T10411071  RH  079%=      5-min Rain = 0
KWE1 141105Z 05004KT M04/M07 A3041 RMK A01 T10411071  RH  079%=      5-min Rain = 0
KWE1 141106Z 05005KT M04/M07 A3041 RMK A01 T10411071  RH  080%=      5-min Rain = 0
KWE1 141107Z 05005KT M04/M07 A3041 RMK A01 T10411071  RH  080%=      5-min Rain = 0
KWE1 141108Z 05005KT M04/M07 A3041 RMK A01 T10411071  RH  079%=      5-min Rain = 0
KWE1 141109Z 05005KT M04/M07 A3041 RMK A01 T10411071  RH  079%=      5-min Rain = 0
KWE1 141110Z 05005KT M04/M07 A3041 RMK A01 T10411071  RH  079%=      5-min Rain = 0
KWE1 141111Z 05004KT M04/M07 A3041 RMK A01 T10411071  RH  079%=      5-min Rain = 0
KWE1 141112Z 05004KT M04/M07 A3041 RMK A01 T10411071  RH  079%=      5-min Rain = 0
KWE1 141113Z 05004KT M04/M07 A3041 RMK A01 T10411071  RH  080%=      5-min Rain = 0
KWE1 141114Z 05004KT M04/M07 A3041 RMK A01 T10401071  RH  080%=      5-min Rain = 0
KWE1 141115Z 04004KT M04/M07 A3041 RMK A01 T10411070  RH  080%=      5-min Rain = 0
KWE1 141116Z 04004KT M04/M07 A3041 RMK A01 T10411071  RH  080%=      5-min Rain = 0
KWE1 141117Z 05005KT M04/M07 A3041 RMK A01 T10411070  RH  080%=      5-min Rain = 0
KWE1 141118Z 04004KT M04/M07 A3041 RMK A01 T10411071  RH  080%=      5-min Rain = 0
KWE1 141119Z 05004KT M04/M07 A3041 RMK A01 T10411070  RH  080%=      5-min Rain = 0
KWE1 141120Z 05004KT M04/M07 A3041 RMK A01 T10411070  RH  080%=      5-min Rain = 0
KWE1 141121Z 05004KT M04/M07 A3041 RMK A01 T10411069  RH  081%=      5-min Rain = 0
KWE1 141122Z 05004KT M04/M07 A3041 RMK A01 T10411069  RH  081%=      5-min Rain = 0
KWE1 141123Z 05004KT M04/M07 A3041 RMK A01 T10411069  RH  081%=      5-min Rain = 0
KWE1 141124Z 05005KT M04/M07 A3041 RMK A01 T10411069  RH  081%=      5-min Rain = 0
KWE1 141125Z 05004KT M04/M07 A3041 RMK A01 T10411069  RH  081%=      5-min Rain = 0
KWE1 141126Z 05005KT M04/M07 A3042 RMK A01 T10421069  RH  081%=      5-min Rain = 0
KWE1 141127Z 05005KT M04/M07 A3042 RMK A01 T10421069  RH  081%=      5-min Rain = 0
KWE1 141128Z 05005KT M04/M07 A3042 RMK A01 T10421069  RH  082%=      5-min Rain = 0
KWE1 141129Z 05005KT M04/M07 A3041 RMK A01 T10421069  RH  082%=      5-min Rain = 0
KWE1 141130Z 05005KT M04/M07 A3041 RMK A01 T10421069  RH  082%=      5-min Rain = 0
KWE1 141131Z 05004KT M04/M07 A3041 RMK A01 T10421069  RH  082%=      5-min Rain = 0
KWE1 141132Z 05004KT M04/M07 A3041 RMK A01 T10421069  RH  082%=      5-min Rain = 0
KWE1 141133Z 05005KT M04/M07 A3041 RMK A01 T10421069  RH  082%=      5-min Rain = 0
KWE1 141134Z 05004KT M04/M07 A3041 RMK A01 T10421069  RH  082%=      5-min Rain = 0
KWE1 141135Z 05005KT M04/M07 A3041 RMK A01 T10421069  RH  082%=      5-min Rain = 0
KWE1 141136Z 05005KT M04/M07 A3041 RMK A01 T10421068  RH  082%=      5-min Rain = 0
KWE1 141137Z 05005KT M04/M07 A3041 RMK A01 T10421068  RH  082%=      5-min Rain = 0
KWE1 141138Z 05004KT M04/M07 A3041 RMK A01 T10421068  RH  082%=      5-min Rain = 0
KWE1 141139Z 05005KT M04/M07 A3041 RMK A01 T10431069  RH  082%=      5-min Rain = 0
KWE1 141140Z 05005KT M04/M07 A3041 RMK A01 T10421068  RH  082%=      5-min Rain = 0
KWE1 141141Z 05005KT M04/M07 A3041 RMK A01 T10431068  RH  082%=      5-min Rain = 0
KWE1 141142Z 05005KT M04/M07 A3041 RMK A01 T10421068  RH  082%=      5-min Rain = 0
KWE1 141143Z 05005KT M04/M07 A3041 RMK A01 T10421068  RH  082%=      5-min Rain = 0
KWE1 141144Z 05004KT M04/M07 A3041 RMK A01 T10431068  RH  082%=      5-min Rain = 0
KWE1 141145Z 05004KT M04/M07 A3041 RMK A01 T10431069  RH  082%=      5-min Rain = 0
KWE1 141146Z 04004KT M04/M07 A3041 RMK A01 T10431069  RH  082%=      5-min Rain = 0
KWE1 141147Z 05004KT M04/M07 A3041 RMK A01 T10421069  RH  082%=      5-min Rain = 0
KWE1 141148Z 04004KT M04/M07 A3041 RMK A01 T10431069  RH  082%=      5-min Rain = 0
KWE1 141149Z 05004KT M04/M07 A3041 RMK A01 T10421069  RH  082%=      5-min Rain = 0
KWE1 141150Z 05004KT M04/M07 A3041 RMK A01 T10421069  RH  082%=      5-min Rain = 0
KWE1 141151Z 05004KT M04/M07 A3041 RMK A01 T10421069  RH  081%=      5-min Rain = 0
KWE1 141152Z 05004KT M04/M07 A3041 RMK A01 T10431070  RH  081%=      5-min Rain = 0
KWE1 141153Z 05005KT M04/M07 A3041 RMK A01 T10421070  RH  081%=      5-min Rain = 0
KWE1 141154Z 05004KT M04/M07 A3041 RMK A01 T10421071  RH  081%=      5-min Rain = 0
KWE1 141155Z 05004KT M04/M07 A3041 RMK A01 T10421071  RH  080%=      5-min Rain = 0
KWE1 141156Z 05004KT M04/M07 A3042 RMK A01 T10421071  RH  080%=      5-min Rain = 0
KWE1 141157Z 05004KT M04/M07 A3041 RMK A01 T10421071  RH  080%=      5-min Rain = 0
KWE1 141158Z 05004KT M04/M07 A3042 RMK A01 T10421071  RH  080%=      5-min Rain = 0
KWE1 141159Z 05004KT M04/M07 A3042 RMK A01 T10421071  RH  080%=      5-min Rain = 0
KWE1 141200Z 05004KT M04/M07 A3042 RMK A01 T10421071  RH  080%=      5-min Rain = 0
KWE1 141201Z 05004KT M04/M07 A3042 RMK A01 T10421072  RH  080%=      5-min Rain = 0
KWE1 141202Z 05005KT M04/M07 A3042 RMK A01 T10421072  RH  080%=      5-min Rain = 0
KWE1 141203Z 05005KT M04/M07 A3041 RMK A01 T10421072  RH  080%=      5-min Rain = 0
KWE1 141204Z 05004KT M04/M07 A3041 RMK A01 T10421071  RH  080%=      5-min Rain = 0
KWE1 141205Z 06005KT M04/M07 A3041 RMK A01 T10411071  RH  080%=      5-min Rain = 0
KWE1 141206Z 06005KT M04/M07 A3041 RMK A01 T10421071  RH  080%=      5-min Rain = 0
KWE1 141207Z 06004KT M04/M07 A3041 RMK A01 T10421071  RH  080%=      5-min Rain = 0
KWE1 141208Z 05004KT M04/M07 A3042 RMK A01 T10421071  RH  080%=      5-min Rain = 0
KWE1 141209Z 06004KT M04/M07 A3042 RMK A01 T10411071  RH  080%=      5-min Rain = 0
KWE1 141210Z 05004KT M04/M07 A3042 RMK A01 T10421071  RH  080%=      5-min Rain = 0
KWE1 141211Z 06003KT M04/M07 A3042 RMK A01 T10411071  RH  080%=      5-min Rain = 0
KWE1 141212Z 06004KT M04/M07 A3042 RMK A01 T10421071  RH  080%=      5-min Rain = 0
KWE1 141213Z 05004KT M04/M07 A3042 RMK A01 T10431072  RH  080%=      5-min Rain = 0
KWE1 141214Z 05004KT M04/M07 A3041 RMK A01 T10431072  RH  080%=      5-min Rain = 0
KWE1 141215Z 05005KT M04/M07 A3041 RMK A01 T10431072  RH  080%=      5-min Rain = 0
KWE1 141216Z 05005KT M04/M07 A3041 RMK A01 T10431072  RH  080%=      5-min Rain = 0
KWE1 141217Z 06004KT M04/M07 A3041 RMK A01 T10421072  RH  079%=      5-min Rain = 0
KWE1 141218Z 05004KT M04/M07 A3041 RMK A01 T10421073  RH  079%=      5-min Rain = 0
KWE1 141219Z 05004KT M04/M07 A3041 RMK A01 T10421073  RH  079%=      5-min Rain = 0
KWE1 141220Z 05004KT M04/M07 A3041 RMK A01 T10421073  RH  079%=      5-min Rain = 0
KWE1 141221Z 05004KT M04/M07 A3041 RMK A01 T10421073  RH  079%=      5-min Rain = 0
KWE1 141222Z 05004KT M04/M07 A3041 RMK A01 T10421072  RH  080%=      5-min Rain = 0
KWE1 141223Z 05004KT M04/M07 A3041 RMK A01 T10431072  RH  080%=      5-min Rain = 0
KWE1 141224Z 05004KT M04/M07 A3041 RMK A01 T10421072  RH  080%=      5-min Rain = 0
KWE1 141225Z 05005KT M04/M07 A3041 RMK A01 T10421073  RH  079%=      5-min Rain = 0
KWE1 141226Z 05004KT M04/M07 A3041 RMK A01 T10431073  RH  079%=      5-min Rain = 0
KWE1 141227Z 05004KT M04/M07 A3041 RMK A01 T10421073  RH  079%=      5-min Rain = 0
KWE1 141228Z 05005KT M04/M07 A3041 RMK A01 T10431073  RH  079%=      5-min Rain = 0
KWE1 141229Z 05004KT M04/M07 A3041 RMK A01 T10431073  RH  080%=      5-min Rain = 0
KWE1 141230Z 06004KT M04/M07 A3041 RMK A01 T10431073  RH  080%=      5-min Rain = 0
KWE1 141231Z 05005KT M04/M07 A3041 RMK A01 T10431073  RH  080%=      5-min Rain = 0
KWE1 141232Z 05005KT M04/M07 A3041 RMK A01 T10431073  RH  080%=      5-min Rain = 0
KWE1 141233Z 05005KT M04/M07 A3041 RMK A01 T10431073  RH  080%=      5-min Rain = 0
KWE1 141234Z 05004KT M04/M07 A3041 RMK A01 T10431073  RH  080%=      5-min Rain = 0
KWE1 141235Z 05003KT M04/M07 A3041 RMK A01 T10431073  RH  080%=      5-min Rain = 0
KWE1 141236Z 05004KT M04/M07 A3041 RMK A01 T10431073  RH  080%=      5-min Rain = 0
KWE1 141237Z 05004KT M04/M07 A3041 RMK A01 T10431073  RH  080%=      5-min Rain = 0
KWE1 141238Z 05004KT M04/M07 A3042 RMK A01 T10431073  RH  080%=      5-min Rain = 0
KWE1 141239Z 06004KT M04/M07 A3042 RMK A01 T10441073  RH  080%=      5-min Rain = 0
KWE1 141240Z 06004KT M04/M07 A3042 RMK A01 T10441074  RH  080%=      5-min Rain = 0
KWE1 141241Z 06004KT M05/M07 A3042 RMK A01 T10451074  RH  080%=      5-min Rain = 0
KWE1 141242Z 06004KT M05/M07 A3042 RMK A01 T10451074  RH  080%=      5-min Rain = 0
KWE1 141243Z 06004KT M05/M07 A3042 RMK A01 T10451074  RH  080%=      5-min Rain = 0
KWE1 141244Z 06004KT M05/M08 A3042 RMK A01 T10451075  RH  080%=      5-min Rain = 0
KWE1 141245Z 06004KT M05/M08 A3042 RMK A01 T10461075  RH  080%=      5-min Rain = 0
KWE1 141246Z 06004KT M05/M08 A3042 RMK A01 T10461075  RH  080%=      5-min Rain = 0
KWE1 141247Z 06004KT M05/M07 A3042 RMK A01 T10461074  RH  080%=      5-min Rain = 0
KWE1 141248Z 06004KT M05/M07 A3042 RMK A01 T10451074  RH  080%=      5-min Rain = 0
KWE1 141249Z 06004KT M05/M08 A3042 RMK A01 T10461075  RH  080%=      5-min Rain = 0
KWE1 141250Z 06004KT M05/M08 A3042 RMK A01 T10461075  RH  080%=      5-min Rain = 0
KWE1 141251Z 06004KT M05/M08 A3042 RMK A01 T10461075  RH  080%=      5-min Rain = 0
KWE1 141252Z 05004KT M05/M08 A3042 RMK A01 T10461075  RH  080%=      5-min Rain = 0
KWE1 141253Z 06003KT M05/M08 A3042 RMK A01 T10461075  RH  080%=      5-min Rain = 0
KWE1 141254Z 06003KT M05/M08 A3042 RMK A01 T10461075  RH  080%=      5-min Rain = 0
KWE1 141255Z 06004KT M05/M08 A3042 RMK A01 T10461075  RH  080%=      5-min Rain = 0
KWE1 141256Z 06004KT M05/M08 A3042 RMK A01 T10461075  RH  080%=      5-min Rain = 0
KWE1 141257Z 06003KT M05/M08 A3042 RMK A01 T10461075  RH  080%=      5-min Rain = 0
KWE1 141258Z 06003KT M05/M08 A3042 RMK A01 T10461075  RH  080%=      5-min Rain = 0
KWE1 141259Z 06003KT M05/M07 A3042 RMK A01 T10451074  RH  080%=      5-min Rain = 0
KWE1 141300Z 07003KT M05/M07 A3042 RMK A01 T10461074  RH  080%=      5-min Rain = 0
KWE1 141301Z 06003KT M05/M07 A3042 RMK A01 T10461074  RH  081%=      5-min Rain = 0
KWE1 141302Z 06003KT M05/M07 A3042 RMK A01 T10461074  RH  081%=      5-min Rain = 0
KWE1 141303Z 07003KT M05/M08 A3042 RMK A01 T10471075  RH  081%=      5-min Rain = 0
KWE1 141304Z 08002KT M05/M08 A3042 RMK A01 T10471075  RH  081%=      5-min Rain = 0
KWE1 141305Z 07002KT M05/M08 A3042 RMK A01 T10481076  RH  081%=      5-min Rain = 0
KWE1 141306Z 07002KT M05/M08 A3042 RMK A01 T10491076  RH  081%=      5-min Rain = 0
KWE1 141307Z 08002KT M05/M08 A3042 RMK A01 T10491077  RH  081%=      5-min Rain = 0
KWE1 141308Z 08002KT M05/M08 A3042 RMK A01 T10491076  RH  081%=      5-min Rain = 0
KWE1 141309Z 08002KT M05/M08 A3042 RMK A01 T10491076  RH  081%=      5-min Rain = 0
KWE1 141310Z 08002KT M05/M08 A3042 RMK A01 T10491076  RH  081%=      5-min Rain = 0
KWE1 141311Z 09002KT M05/M08 A3042 RMK A01 T10491076  RH  081%=      5-min Rain = 0
KWE1 141312Z 09002KT M05/M08 A3042 RMK A01 T10491077  RH  081%=      5-min Rain = 0
KWE1 141313Z 09002KT M05/M08 A3042 RMK A01 T10491077  RH  081%=      5-min Rain = 0
KWE1 141314Z 09002KT M05/M08 A3042 RMK A01 T10501078  RH  081%=      5-min Rain = 0
KWE1 141315Z 09002KT M05/M08 A3042 RMK A01 T10501078  RH  081%=      5-min Rain = 0
KWE1 141316Z 09002KT M05/M08 A3042 RMK A01 T10491077  RH  081%=      5-min Rain = 0
KWE1 141317Z 09002KT M05/M08 A3042 RMK A01 T10491076  RH  081%=      5-min Rain = 0
KWE1 141318Z 09002KT M05/M07 A3042 RMK A01 T10481074  RH  082%=      5-min Rain = 0
KWE1 141319Z 09002KT M05/M07 A3042 RMK A01 T10481074  RH  082%=      5-min Rain = 0
KWE1 141320Z 09002KT M05/M07 A3042 RMK A01 T10481074  RH  082%=      5-min Rain = 0
KWE1 141321Z 09002KT M05/M07 A3042 RMK A01 T10491074  RH  083%=      5-min Rain = 0
KWE1 141322Z 08002KT M05/M07 A3043 RMK A01 T10501074  RH  083%=      5-min Rain = 0
KWE1 141323Z 08002KT M05/M07 A3042 RMK A01 T10501074  RH  083%=      5-min Rain = 0
KWE1 141324Z 09002KT M05/M07 A3042 RMK A01 T10501074  RH  084%=      5-min Rain = 0
KWE1 141325Z 09002KT M05/M07 A3043 RMK A01 T10511074  RH  084%=      5-min Rain = 0
KWE1 141326Z 09002KT M05/M07 A3043 RMK A01 T10511073  RH  084%=      5-min Rain = 0
KWE1 141327Z 09002KT M05/M07 A3043 RMK A01 T10501072  RH  085%=      5-min Rain = 0
KWE1 141328Z 09003KT M05/M07 A3043 RMK A01 T10501072  RH  085%=      5-min Rain = 0
KWE1 141329Z 08002KT M05/M07 A3043 RMK A01 T10501072  RH  085%=      5-min Rain = 0
KWE1 141330Z 08002KT M05/M07 A3043 RMK A01 T10501072  RH  084%=      5-min Rain = 0
KWE1 141331Z 09002KT M05/M07 A3043 RMK A01 T10501072  RH  084%=      5-min Rain = 0
KWE1 141332Z 10002KT M05/M07 A3043 RMK A01 T10501073  RH  084%=      5-min Rain = 0
KWE1 141333Z 10001KT M05/M07 A3043 RMK A01 T10501072  RH  084%=      5-min Rain = 0
KWE1 141334Z 10001KT M05/M07 A3043 RMK A01 T10501072  RH  085%=      5-min Rain = 0
KWE1 141335Z 10001KT M05/M07 A3043 RMK A01 T10501072  RH  085%=      5-min Rain = 0
KWE1 141336Z 10002KT M05/M07 A3043 RMK A01 T10501072  RH  085%=      5-min Rain = 0
KWE1 141337Z 09002KT M05/M07 A3043 RMK A01 T10501071  RH  085%=      5-min Rain = 0
KWE1 141338Z 08001KT M05/M07 A3043 RMK A01 T10501071  RH  085%=      5-min Rain = 0
KWE1 141339Z 08001KT M05/M07 A3043 RMK A01 T10491071  RH  085%=      5-min Rain = 0
KWE1 141340Z 08002KT M05/M07 A3043 RMK A01 T10491071  RH  085%=      5-min Rain = 0
KWE1 141341Z 08002KT M05/M07 A3043 RMK A01 T10491070  RH  085%=      5-min Rain = 0
KWE1 141342Z 08002KT M05/M07 A3043 RMK A01 T10481070  RH  085%=      5-min Rain = 0
KWE1 141343Z 09002KT M05/M07 A3043 RMK A01 T10481070  RH  085%=      5-min Rain = 0
KWE1 141344Z 09002KT M05/M07 A3043 RMK A01 T10471069  RH  085%=      5-min Rain = 0
KWE1 141345Z 09002KT M05/M07 A3043 RMK A01 T10471069  RH  085%=      5-min Rain = 0
KWE1 141346Z 09002KT M05/M07 A3043 RMK A01 T10471069  RH  085%=      5-min Rain = 0
KWE1 141347Z 09002KT M05/M07 A3043 RMK A01 T10471069  RH  084%=      5-min Rain = 0
KWE1 141348Z 08002KT M05/M07 A3043 RMK A01 T10461069  RH  084%=      5-min Rain = 0
KWE1 141349Z 08002KT M05/M07 A3043 RMK A01 T10461069  RH  084%=      5-min Rain = 0
KWE1 141350Z 07002KT M05/M07 A3043 RMK A01 T10451069  RH  084%=      5-min Rain = 0
KWE1 141351Z 07002KT M04/M07 A3043 RMK A01 T10441068  RH  084%=      5-min Rain = 0
KWE1 141352Z 08002KT M04/M07 A3043 RMK A01 T10431067  RH  084%=      5-min Rain = 0
KWE1 141353Z 08002KT M04/M07 A3043 RMK A01 T10431067  RH  083%=      5-min Rain = 0
KWE1 141354Z 08002KT M04/M07 A3043 RMK A01 T10421067  RH  083%=      5-min Rain = 0
KWE1 141355Z 08003KT M04/M07 A3043 RMK A01 T10421068  RH  082%=      5-min Rain = 0
KWE1 141356Z 09002KT M04/M07 A3043 RMK A01 T10411067  RH  082%=      5-min Rain = 0
KWE1 141357Z 09002KT M04/M07 A3043 RMK A01 T10401067  RH  082%=      5-min Rain = 0
KWE1 141358Z 09002KT M04/M07 A3043 RMK A01 T10391067  RH  081%=      5-min Rain = 0
KWE1 141359Z 09002KT M04/M07 A3043 RMK A01 T10381066  RH  081%=      5-min Rain = 0
KWE1 141400Z 08002KT M04/M07 A3043 RMK A01 T10381067  RH  080%=      5-min Rain = 0
KWE1 141401Z 08002KT M04/M07 A3043 RMK A01 T10371067  RH  079%=      5-min Rain = 0
KWE1 141402Z 08002KT M04/M07 A3044 RMK A01 T10361067  RH  079%=      5-min Rain = 0
KWE1 141403Z 09002KT M04/M07 A3044 RMK A01 T10361068  RH  079%=      5-min Rain = 0
KWE1 141404Z 10002KT M04/M07 A3044 RMK A01 T10351067  RH  078%=      5-min Rain = 0
KWE1 141405Z 09002KT M03/M07 A3044 RMK A01 T10341067  RH  078%=      5-min Rain = 0
KWE1 141406Z 09003KT M03/M07 A3044 RMK A01 T10341068  RH  077%=      5-min Rain = 0
KWE1 141407Z 09002KT M03/M07 A3044 RMK A01 T10331069  RH  077%=      5-min Rain = 0
KWE1 141408Z 10003KT M03/M07 A3044 RMK A01 T10331069  RH  076%=      5-min Rain = 0
KWE1 141409Z 09003KT M03/M07 A3044 RMK A01 T10331068  RH  077%=      5-min Rain = 0
KWE1 141410Z 09003KT M03/M07 A3044 RMK A01 T10331069  RH  076%=      5-min Rain = 0
KWE1 141411Z 09003KT M03/M07 A3044 RMK A01 T10321069  RH  076%=      5-min Rain = 0
KWE1 141412Z 09002KT M03/M07 A3044 RMK A01 T10311068  RH  076%=      5-min Rain = 0
KWE1 141413Z 09003KT M03/M07 A3044 RMK A01 T10311068  RH  075%=      5-min Rain = 0
KWE1 141414Z 08003KT M03/M07 A3044 RMK A01 T10311069  RH  075%=      5-min Rain = 0
KWE1 141415Z 09003KT M03/M07 A3044 RMK A01 T10311069  RH  075%=      5-min Rain = 0
KWE1 141416Z 08003KT M03/M07 A3044 RMK A01 T10311069  RH  075%=      5-min Rain = 0
KWE1 141417Z 09004KT M03/M07 A3044 RMK A01 T10301069  RH  075%=      5-min Rain = 0
KWE1 141418Z 09005KT M03/M07 A3044 RMK A01 T10301069  RH  074%=      5-min Rain = 0
KWE1 141419Z 09005KT M03/M07 A3044 RMK A01 T10301069  RH  074%=      5-min Rain = 0
KWE1 141420Z 09004KT M03/M07 A3044 RMK A01 T10301070  RH  074%=      5-min Rain = 0
KWE1 141421Z 08005KT M03/M07 A3044 RMK A01 T10291070  RH  074%=      5-min Rain = 0
KWE1 141422Z 08004KT M03/M07 A3044 RMK A01 T10291071  RH  073%=      5-min Rain = 0
KWE1 141423Z 09004KT M03/M07 A3044 RMK A01 T10291071  RH  073%=      5-min Rain = 0
KWE1 141424Z 09004KT M03/M07 A3044 RMK A01 T10291071  RH  073%=      5-min Rain = 0
KWE1 141425Z 09006KT M03/M07 A3044 RMK A01 T10291071  RH  073%=      5-min Rain = 0
KWE1 141426Z 09006KT M03/M07 A3044 RMK A01 T10291072  RH  072%=      5-min Rain = 0
KWE1 141427Z 09005KT M03/M07 A3044 RMK A01 T10291072  RH  072%=      5-min Rain = 0
KWE1 141428Z 08005KT M03/M07 A3044 RMK A01 T10281073  RH  071%=      5-min Rain = 0
KWE1 141429Z 08005KT M03/M07 A3044 RMK A01 T10281073  RH  071%=      5-min Rain = 0
KWE1 141430Z 09004KT M03/M07 A3044 RMK A01 T10281071  RH  072%=      5-min Rain = 0
KWE1 141431Z 08005KT M03/M07 A3044 RMK A01 T10261069  RH  072%=      5-min Rain = 0
KWE1 141432Z 08006KT M03/M07 A3044 RMK A01 T10261070  RH  072%=      5-min Rain = 0
KWE1 141433Z 09006KT M03/M07 A3044 RMK A01 T10261072  RH  071%=      5-min Rain = 0
KWE1 141434Z 08006KT M03/M07 A3044 RMK A01 T10261073  RH  070%=      5-min Rain = 0
KWE1 141435Z 09007KT M03/M07 A3044 RMK A01 T10261073  RH  070%=      5-min Rain = 0
KWE1 141436Z 08006KT M03/M07 A3044 RMK A01 T10261074  RH  069%=      5-min Rain = 0
KWE1 141437Z 09006KT M03/M07 A3044 RMK A01 T10261074  RH  070%=      5-min Rain = 0
KWE1 141438Z 08005KT M03/M07 A3044 RMK A01 T10261074  RH  070%=      5-min Rain = 0
KWE1 141439Z 09005KT M03/M07 A3044 RMK A01 T10251072  RH  070%=      5-min Rain = 0
KWE1 141440Z 10005KT M02/M07 A3045 RMK A01 T10241070  RH  071%=      5-min Rain = 0
KWE1 141441Z 10007KT M02/M07 A3045 RMK A01 T10241070  RH  070%=      5-min Rain = 0
KWE1 141442Z 10007KT M02/M07 A3045 RMK A01 T10241071  RH  070%=      5-min Rain = 0
KWE1 141443Z 09007KT M02/M07 A3045 RMK A01 T10241072  RH  069%=      5-min Rain = 0
KWE1 141444Z 09008KT M02/M07 A3045 RMK A01 T10241073  RH  069%=      5-min Rain = 0
KWE1 141445Z 09007KT M02/M07 A3045 RMK A01 T10241074  RH  069%=      5-min Rain = 0
KWE1 141446Z 09006KT M02/M07 A3045 RMK A01 T10241073  RH  069%=      5-min Rain = 0
KWE1 141447Z 08006KT M02/M07 A3045 RMK A01 T10231070  RH  070%=      5-min Rain = 0
KWE1 141448Z 08006KT M02/M07 A3045 RMK A01 T10231071  RH  069%=      5-min Rain = 0
KWE1 141449Z 09006KT M02/M07 A3045 RMK A01 T10231072  RH  069%=      5-min Rain = 0
KWE1 141450Z 09007KT M02/M07 A3045 RMK A01 T10231072  RH  069%=      5-min Rain = 0
KWE1 141451Z 09007KT M02/M07 A3045 RMK A01 T10231072  RH  069%=      5-min Rain = 0
KWE1 141452Z 09007KT M02/M07 A3045 RMK A01 T10231072  RH  069%=      5-min Rain = 0
KWE1 141453Z 08006KT M02/M07 A3045 RMK A01 T10231072  RH  069%=      5-min Rain = 0
KWE1 141454Z 08007KT M02/M07 A3045 RMK A01 T10221071  RH  069%=      5-min Rain = 0
KWE1 141455Z 08006KT M02/M07 A3045 RMK A01 T10221071  RH  069%=      5-min Rain = 0
KWE1 141456Z 09007KT M02/M07 A3045 RMK A01 T10221071  RH  069%=      5-min Rain = 0
KWE1 141457Z 09007KT M02/M07 A3045 RMK A01 T10211071  RH  069%=      5-min Rain = 0
KWE1 141458Z 10007KT M02/M07 A3045 RMK A01 T10221072  RH  069%=      5-min Rain = 0
KWE1 141459Z 10006KT M02/M07 A3045 RMK A01 T10211072  RH  068%=      5-min Rain = 0
KWE1 141500Z 09006KT M02/M07 A3045 RMK A01 T10211072  RH  068%=      5-min Rain = 0
KWE1 141501Z 08007KT M02/M07 A3045 RMK A01 T10211071  RH  068%=      5-min Rain = 0
KWE1 141502Z 09006KT M02/M07 A3045 RMK A01 T10211071  RH  069%=      5-min Rain = 0
KWE1 141503Z 09006KT M02/M07 A3045 RMK A01 T10201068  RH  069%=      5-min Rain = 0
KWE1 141504Z 09006KT M02/M07 A3045 RMK A01 T10191069  RH  069%=      5-min Rain = 0
KWE1 141505Z 10005KT M02/M07 A3045 RMK A01 T10191069  RH  068%=      5-min Rain = 0
KWE1 141506Z 10007KT M02/M07 A3045 RMK A01 T10171068  RH  068%=      5-min Rain = 0
KWE1 141507Z 10006KT M02/M07 A3045 RMK A01 T10171069  RH  068%=      5-min Rain = 0
KWE1 141508Z 10007KT M02/M07 A3045 RMK A01 T10171069  RH  068%=      5-min Rain = 0
KWE1 141509Z 09005KT M02/M07 A3045 RMK A01 T10161067  RH  068%=      5-min Rain = 0
KWE1 141510Z 09005KT M02/M07 A3045 RMK A01 T10161067  RH  068%=      5-min Rain = 0
KWE1 141511Z 09006KT M02/M06 A3045 RMK A01 T10151064  RH  069%=      5-min Rain = 0
KWE1 141512Z 09006KT M01/M07 A3045 RMK A01 T10131066  RH  068%=      5-min Rain = 0
KWE1 141513Z 09006KT M01/M07 A3045 RMK A01 T10141070  RH  066%=      5-min Rain = 0
KWE1 141514Z 09008KT M02/M07 A3045 RMK A01 T10151070  RH  066%=      5-min Rain = 0
KWE1 141515Z 10007KT M02/M07 A3045 RMK A01 T10151070  RH  066%=      5-min Rain = 0
KWE1 141516Z 10006KT M01/M07 A3045 RMK A01 T10141070  RH  066%=      5-min Rain = 0
KWE1 141517Z 09006KT M01/M07 A3045 RMK A01 T10131068  RH  066%=      5-min Rain = 0
KWE1 141518Z 08006KT M01/M07 A3045 RMK A01 T10131069  RH  066%=      5-min Rain = 0
KWE1 141519Z 09007KT M01/M07 A3045 RMK A01 T10131069  RH  066%=      5-min Rain = 0
KWE1 141520Z 09006KT M02/M07 A3045 RMK A01 T10151071  RH  065%=      5-min Rain = 0
KWE1 141521Z 08007KT M02/M07 A3045 RMK A01 T10151071  RH  066%=      5-min Rain = 0
KWE1 141522Z 09006KT M01/M07 A3045 RMK A01 T10141070  RH  066%=      5-min Rain = 0
KWE1 141523Z 10006KT M01/M07 A3045 RMK A01 T10141070  RH  066%=      5-min Rain = 0
KWE1 141524Z 08006KT M01/M07 A3045 RMK A01 T10131068  RH  066%=      5-min Rain = 0
KWE1 141525Z 09007KT M01/M07 A3045 RMK A01 T10121068  RH  065%=      5-min Rain = 0
KWE1 141526Z 09007KT M01/M07 A3045 RMK A01 T10121070  RH  065%=      5-min Rain = 0
KWE1 141527Z 10008KT M01/M07 A3045 RMK A01 T10121070  RH  065%=      5-min Rain = 0
KWE1 141528Z 10006KT M01/M07 A3045 RMK A01 T10121071  RH  064%=      5-min Rain = 0
KWE1 141529Z 10005KT M01/M07 A3045 RMK A01 T10121071  RH  064%=      5-min Rain = 0
KWE1 141530Z 10005KT M01/M07 A3045 RMK A01 T10111070  RH  064%=      5-min Rain = 0
KWE1 141531Z 09008KT M01/M07 A3045 RMK A01 T10091066  RH  065%=      5-min Rain = 0
KWE1 141532Z 10006KT M01/M07 A3045 RMK A01 T10081068  RH  064%=      5-min Rain = 0
KWE1 141533Z 11005KT M01/M07 A3045 RMK A01 T10081069  RH  063%=      5-min Rain = 0
KWE1 141534Z 10006KT M01/M07 A3045 RMK A01 T10081069  RH  063%=      5-min Rain = 0
KWE1 141535Z 11007KT M01/M07 A3045 RMK A01 T10071069  RH  063%=      5-min Rain = 0
KWE1 141536Z 09005KT M01/M07 A3045 RMK A01 T10071070  RH  062%=      5-min Rain = 0
KWE1 141537Z 09006KT M01/M07 A3045 RMK A01 T10081070  RH  063%=      5-min Rain = 0
KWE1 141538Z 10006KT M01/M07 A3045 RMK A01 T10061066  RH  064%=      5-min Rain = 0
KWE1 141539Z 11005KT M01/M07 A3044 RMK A01 T10061068  RH  063%=      5-min Rain = 0
KWE1 141540Z 11006KT M01/M07 A3045 RMK A01 T10051068  RH  062%=      5-min Rain = 0
KWE1 141541Z 10006KT M01/M07 A3045 RMK A01 T10051068  RH  063%=      5-min Rain = 0
KWE1 141542Z 10006KT M00/M06 A3045 RMK A01 T10031064  RH  063%=      5-min Rain = 0
KWE1 141543Z 11005KT M00/M07 A3045 RMK A01 T10031068  RH  061%=      5-min Rain = 0
KWE1 141544Z 11005KT M00/M07 A3045 RMK A01 T10031068  RH  062%=      5-min Rain = 0
KWE1 141545Z 12005KT M00/M07 A3045 RMK A01 T10031067  RH  062%=      5-min Rain = 0
KWE1 141546Z 10006KT M00/M07 A3045 RMK A01 T10031068  RH  062%=      5-min Rain = 0
KWE1 141547Z 11006KT M00/M07 A3045 RMK A01 T10041068  RH  062%=      5-min Rain = 0
KWE1 141548Z 10006KT M00/M07 A3045 RMK A01 T10041068  RH  062%=      5-min Rain = 0
KWE1 141549Z 12004KT M00/M07 A3045 RMK A01 T10041070  RH  061%=      5-min Rain = 0
KWE1 141550Z 10003KT M00/M07 A3045 RMK A01 T10041068  RH  062%=      5-min Rain = 0
KWE1 141551Z 10006KT M00/M06 A3045 RMK A01 T10021064  RH  063%=      5-min Rain = 0
KWE1 141552Z 09007KT M00/M07 A3045 RMK A01 T10021067  RH  061%=      5-min Rain = 0
KWE1 141553Z 10007KT M00/M07 A3045 RMK A01 T10021067  RH  062%=      5-min Rain = 0
KWE1 141554Z 11007KT M00/M07 A3044 RMK A01 T10031069  RH  061%=      5-min Rain = 0
KWE1 141555Z 11006KT M00/M07 A3044 RMK A01 T10031070  RH  060%=      5-min Rain = 0
KWE1 141556Z 13005KT M00/M07 A3044 RMK A01 T10021069  RH  060%=      5-min Rain = 0
KWE1 141557Z 12005KT M00/M07 A3044 RMK A01 T10011069  RH  060%=      5-min Rain = 0
KWE1 141558Z 11004KT 00/07 A3044 RMK A01 T00-00-69  RH  060%=      5-min Rain = 0
KWE1 141559Z 09005KT 00/M07 A3044 RMK A01 T00011067  RH  060%=      5-min Rain = 0
KWE1 141600Z 11005KT 00/M06 A3044 RMK A01 T00041060  RH  062%=      5-min Rain = 0
KWE1 141601Z 12006KT 01/M06 A3044 RMK A01 T00061062  RH  060%=      5-min Rain = 0
KWE1 141602Z 12006KT 00/M07 A3044 RMK A01 T00041068  RH  059%=      5-min Rain = 0
KWE1 141603Z 13005KT 00/M07 A3044 RMK A01 T00031067  RH  059%=      5-min Rain = 0
KWE1 141604Z 14006KT 00/M07 A3044 RMK A01 T00031065  RH  060%=      5-min Rain = 0
KWE1 141605Z 13005KT 00/M07 A3044 RMK A01 T00041065  RH  060%=      5-min Rain = 0
KWE1 141606Z 11005KT 01/M06 A3044 RMK A01 T00061062  RH  060%=      5-min Rain = 0
KWE1 141607Z 10006KT 01/M06 A3044 RMK A01 T00061064  RH  059%=      5-min Rain = 0
KWE1 141608Z 10006KT 01/M07 A3044 RMK A01 T00051067  RH  059%=      5-min Rain = 0
KWE1 141609Z 12006KT 00/M07 A3044 RMK A01 T00041066  RH  059%=      5-min Rain = 0
KWE1 141610Z 14006KT 01/M06 A3044 RMK A01 T00051063  RH  061%=      5-min Rain = 0
KWE1 141611Z 14005KT 01/M06 A3044 RMK A01 T00061064  RH  059%=      5-min Rain = 0
KWE1 141612Z 13005KT 01/M06 A3044 RMK A01 T00071063  RH  059%=      5-min Rain = 0
KWE1 141613Z 13005KT 01/M07 A3044 RMK A01 T00061066  RH  058%=      5-min Rain = 0
KWE1 141614Z 14007KT 01/M06 A3044 RMK A01 T00061064  RH  059%=      5-min Rain = 0
KWE1 141615Z 14007KT 01/M06 A3044 RMK A01 T00071060  RH  060%=      5-min Rain = 0
KWE1 141616Z 15006KT 01/M06 A3044 RMK A01 T00091060  RH  060%=      5-min Rain = 0
KWE1 141617Z 16006KT 01/M06 A3044 RMK A01 T00091062  RH  059%=      5-min Rain = 0
KWE1 141618Z 13006KT 01/M06 A3044 RMK A01 T00091058  RH  061%=      5-min Rain = 0
KWE1 141619Z 13006KT 01/M06 A3044 RMK A01 T00101059  RH  060%=      5-min Rain = 0
KWE1 141620Z 13005KT 01/M06 A3044 RMK A01 T00081063  RH  059%=      5-min Rain = 0
KWE1 141621Z 15007KT 01/M06 A3044 RMK A01 T00081061  RH  060%=      5-min Rain = 0
KWE1 141622Z 14007KT 01/M06 A3044 RMK A01 T00091061  RH  060%=      5-min Rain = 0
KWE1 141623Z 14007KT 01/M06 A3044 RMK A01 T00091059  RH  061%=      5-min Rain = 0
KWE1 141624Z 15006KT 01/M06 A3044 RMK A01 T00091056  RH  062%=      5-min Rain = 0
KWE1 141625Z 15007KT 01/M06 A3044 RMK A01 T00101056  RH  062%=      5-min Rain = 0
KWE1 141626Z 15006KT 01/M06 A3044 RMK A01 T00101058  RH  061%=      5-min Rain = 0
KWE1 141627Z 15005KT 01/M06 A3044 RMK A01 T00091058  RH  061%=      5-min Rain = 0
KWE1 141628Z 15006KT 01/M06 A3044 RMK A01 T00091058  RH  061%=      5-min Rain = 0
KWE1 141629Z 13006KT 01/M06 A3044 RMK A01 T00101057  RH  061%=      5-min Rain = 0
KWE1 141630Z 14006KT 01/M06 A3044 RMK A01 T00101057  RH  061%=      5-min Rain = 0
KWE1 141631Z 15005KT 01/M06 A3044 RMK A01 T00101057  RH  061%=      5-min Rain = 0
KWE1 141632Z 17006KT 01/M06 A3044 RMK A01 T00101057  RH  061%=      5-min Rain = 0
KWE1 141633Z 15007KT 01/M05 A3044 RMK A01 T00091054  RH  063%=      5-min Rain = 0
KWE1 141634Z 14005KT 01/M05 A3044 RMK A01 T00101053  RH  063%=      5-min Rain = 0
KWE1 141635Z 16006KT 01/M05 A3044 RMK A01 T00121052  RH  062%=      5-min Rain = 0
KWE1 141636Z 16005KT 01/M06 A3044 RMK A01 T00111056  RH  061%=      5-min Rain = 0
KWE1 141637Z 15007KT 01/M05 A3044 RMK A01 T00121051  RH  063%=      5-min Rain = 0
KWE1 141638Z 13006KT 01/M05 A3044 RMK A01 T00131051  RH  063%=      5-min Rain = 0
KWE1 141639Z 12005KT 01/M05 A3044 RMK A01 T00141053  RH  061%=      5-min Rain = 0
KWE1 141640Z 13006KT 01/M06 A3044 RMK A01 T00131056  RH  060%=      5-min Rain = 0
KWE1 141641Z 14006KT 01/M06 A3044 RMK A01 T00121055  RH  061%=      5-min Rain = 0
KWE1 141642Z 15006KT 01/M05 A3044 RMK A01 T00121054  RH  061%=      5-min Rain = 0
KWE1 141643Z 12008KT 01/M06 A3044 RMK A01 T00111058  RH  060%=      5-min Rain = 0
KWE1 141644Z 11007KT 01/M06 A3044 RMK A01 T00111060  RH  059%=      5-min Rain = 0
KWE1 141645Z 12004KT 01/M06 A3044 RMK A01 T00111059  RH  060%=      5-min Rain = 0
KWE1 141646Z 14005KT 01/M06 A3044 RMK A01 T00121055  RH  061%=      5-min Rain = 0
KWE1 141647Z 15005KT 02/M05 A3044 RMK A01 T00151049  RH  062%=      5-min Rain = 0
KWE1 141648Z 14006KT 02/M05 A3044 RMK A01 T00171049  RH  061%=      5-min Rain = 0
KWE1 141649Z 15008KT 02/M05 A3044 RMK A01 T00181051  RH  060%=      5-min Rain = 0
KWE1 141650Z 16008KT 02/M05 A3044 RMK A01 T00191052  RH  059%=      5-min Rain = 0
KWE1 141651Z 17006KT 02/M05 A3044 RMK A01 T00181054  RH  059%=      5-min Rain = 0
KWE1 141652Z 17006KT 02/M05 A3044 RMK A01 T00171053  RH  060%=      5-min Rain = 0
KWE1 141653Z 16005KT 02/M05 A3044 RMK A01 T00171050  RH  061%=      5-min Rain = 0
KWE1 141654Z 14006KT 02/M05 A3044 RMK A01 T00181052  RH  059%=      5-min Rain = 0
KWE1 141655Z 13005KT 02/M06 A3044 RMK A01 T00181055  RH  059%=      5-min Rain = 0
KWE1 141656Z 15007KT 02/M05 A3044 RMK A01 T00201049  RH  061%=      5-min Rain = 0
KWE1 141657Z 16006KT 02/M05 A3044 RMK A01 T00211053  RH  058%=      5-min Rain = 0
KWE1 141658Z 15005KT 02/M06 A3044 RMK A01 T00191057  RH  057%=      5-min Rain = 0
KWE1 141659Z 14005KT 02/M05 A3044 RMK A01 T00191053  RH  059%=      5-min Rain = 0
KWE1 141700Z 14003KT 02/M05 A3044 RMK A01 T00211053  RH  058%=      5-min Rain = 0
KWE1 141701Z 13005KT 02/M05 A3044 RMK A01 T00221052  RH  058%=      5-min Rain = 0
KWE1 141702Z 14006KT 02/M05 A3043 RMK A01 T00231051  RH  058%=      5-min Rain = 0
KWE1 141703Z 14006KT 02/M05 A3043 RMK A01 T00221052  RH  058%=      5-min Rain = 0
KWE1 141704Z 15007KT 02/M05 A3043 RMK A01 T00221051  RH  058%=      5-min Rain = 0
KWE1 141705Z 16005KT 02/M06 A3043 RMK A01 T00221057  RH  056%=      5-min Rain = 0
KWE1 141706Z 17004KT 02/M06 A3043 RMK A01 T00201058  RH  056%=      5-min Rain = 0
KWE1 141707Z 18003KT 02/M06 A3043 RMK A01 T00201055  RH  057%=      5-min Rain = 0
KWE1 141708Z 15006KT 02/M05 A3044 RMK A01 T00221050  RH  059%=      5-min Rain = 0
KWE1 141709Z 15007KT 02/M05 A3044 RMK A01 T00231049  RH  059%=      5-min Rain = 0
KWE1 141710Z 16006KT 02/M05 A3044 RMK A01 T00231050  RH  058%=      5-min Rain = 0
KWE1 141711Z 17005KT 02/M05 A3044 RMK A01 T00231053  RH  057%=      5-min Rain = 0
KWE1 141712Z 17004KT 02/M05 A3043 RMK A01 T00241051  RH  058%=      5-min Rain = 0
KWE1 141713Z 15006KT 03/M05 A3043 RMK A01 T00251049  RH  058%=      5-min Rain = 0
KWE1 141714Z 15006KT 03/M05 A3043 RMK A01 T00251052  RH  057%=      5-min Rain = 0
KWE1 141715Z 14007KT 03/M05 A3043 RMK A01 T00251052  RH  057%=      5-min Rain = 0
KWE1 141716Z 16005KT 03/M05 A3043 RMK A01 T00251046  RH  059%=      5-min Rain = 0
KWE1 141717Z 15007KT 03/M04 A3043 RMK A01 T00271043  RH  060%=      5-min Rain = 0
KWE1 141718Z 15006KT 03/M04 A3043 RMK A01 T00291044  RH  059%=      5-min Rain = 0
KWE1 141719Z 16006KT 03/M05 A3043 RMK A01 T00281050  RH  056%=      5-min Rain = 0
KWE1 141720Z 17007KT 03/M05 A3043 RMK A01 T00261052  RH  056%=      5-min Rain = 0
KWE1 141721Z 17006KT 03/M05 A3043 RMK A01 T00251050  RH  058%=      5-min Rain = 0
KWE1 141722Z 17004KT 02/M05 A3043 RMK A01 T00241052  RH  057%=      5-min Rain = 0
KWE1 141723Z 17004KT 02/M06 A3043 RMK A01 T00231056  RH  056%=      5-min Rain = 0
KWE1 141724Z 14006KT 02/M05 A3043 RMK A01 T00241047  RH  059%=      5-min Rain = 0
KWE1 141725Z 15006KT 03/M05 A3043 RMK A01 T00261049  RH  058%=      5-min Rain = 0
KWE1 141726Z 14005KT 03/M05 A3043 RMK A01 T00271045  RH  059%=      5-min Rain = 0
KWE1 141727Z 14007KT 03/M04 A3043 RMK A01 T00301043  RH  059%=      5-min Rain = 0
KWE1 141728Z 15007KT 03/M05 A3043 RMK A01 T00301048  RH  057%=      5-min Rain = 0
KWE1 141729Z 14007KT 03/M05 A3043 RMK A01 T00291046  RH  058%=      5-min Rain = 0
KWE1 141730Z 15006KT 03/M05 A3043 RMK A01 T00281049  RH  057%=      5-min Rain = 0
KWE1 141731Z 13004KT 03/M05 A3043 RMK A01 T00281050  RH  057%=      5-min Rain = 0
KWE1 141732Z 14004KT 03/M05 A3043 RMK A01 T00271052  RH  056%=      5-min Rain = 0
KWE1 141733Z 14005KT 03/M05 A3043 RMK A01 T00271050  RH  057%=      5-min Rain = 0
KWE1 141734Z 13006KT 03/M05 A3043 RMK A01 T00271048  RH  057%=      5-min Rain = 0
KWE1 141735Z 15008KT 03/M05 A3042 RMK A01 T00281049  RH  057%=      5-min Rain = 0
KWE1 141736Z 16006KT 03/M05 A3042 RMK A01 T00271047  RH  058%=      5-min Rain = 0
KWE1 141737Z 17006KT 03/M05 A3042 RMK A01 T00271047  RH  058%=      5-min Rain = 0
KWE1 141738Z 16004KT 03/M05 A3042 RMK A01 T00261050  RH  057%=      5-min Rain = 0
KWE1 141739Z 19006KT 03/M05 A3042 RMK A01 T00251049  RH  058%=      5-min Rain = 0
KWE1 141740Z 19005KT 03/M05 A3042 RMK A01 T00251047  RH  059%=      5-min Rain = 0
KWE1 141741Z 19005KT 02/M05 A3042 RMK A01 T00241048  RH  059%=      5-min Rain = 0
KWE1 141742Z 18005KT 02/M05 A3042 RMK A01 T00241049  RH  059%=      5-min Rain = 0
KWE1 141743Z 14005KT 02/M05 A3042 RMK A01 T00241047  RH  059%=      5-min Rain = 0
KWE1 141744Z 13005KT 03/M05 A3042 RMK A01 T00261046  RH  059%=      5-min Rain = 0
KWE1 141745Z 13007KT 03/M05 A3042 RMK A01 T00271045  RH  059%=      5-min Rain = 0
KWE1 141746Z 12007KT 03/M05 A3042 RMK A01 T00281045  RH  059%=      5-min Rain = 0
KWE1 141747Z 12007KT 03/M04 A3042 RMK A01 T00291044  RH  059%=      5-min Rain = 0
KWE1 141748Z 14006KT 03/M04 A3042 RMK A01 T00301044  RH  058%=      5-min Rain = 0
KWE1 141749Z 13005KT 03/M05 A3042 RMK A01 T00291045  RH  058%=      5-min Rain = 0
KWE1 141750Z 11005KT 03/M05 A3042 RMK A01 T00291047  RH  057%=      5-min Rain = 0
KWE1 141751Z 11003KT 03/M05 A3041 RMK A01 T00291051  RH  056%=      5-min Rain = 0
KWE1 141752Z 16002KT 03/M05 A3041 RMK A01 T00271052  RH  056%=      5-min Rain = 0
KWE1 141753Z 16003KT 03/M05 A3041 RMK A01 T00271053  RH  056%=      5-min Rain = 0
KWE1 141754Z 15002KT 03/M05 A3041 RMK A01 T00281050  RH  057%=      5-min Rain = 0
KWE1 141755Z 15003KT 03/M05 A3041 RMK A01 T00311048  RH  056%=      5-min Rain = 0
KWE1 141756Z 12006KT 03/M04 A3041 RMK A01 T00331043  RH  057%=      5-min Rain = 0
KWE1 141757Z 12005KT 04/M04 A3041 RMK A01 T00351044  RH  056%=      5-min Rain = 0
KWE1 141758Z 12005KT 04/M04 A3041 RMK A01 T00351044  RH  056%=      5-min Rain = 0
KWE1 141759Z 12004KT 03/M05 A3041 RMK A01 T00341045  RH  056%=      5-min Rain = 0
KWE1 141800Z 12003KT 03/M05 A3041 RMK A01 T00341045  RH  056%=      5-min Rain = 0
KWE1 141801Z 10003KT 04/M04 A3041 RMK A01 T00351044  RH  056%=      5-min Rain = 0
KWE1 141802Z 11002KT 04/M04 A3041 RMK A01 T00361044  RH  056%=      5-min Rain = 0
KWE1 141803Z 15002KT 04/M05 A3041 RMK A01 T00371045  RH  055%=      5-min Rain = 0
KWE1 141804Z 12006KT 04/M04 A3041 RMK A01 T00381039  RH  057%=      5-min Rain = 0
KWE1 141805Z 13006KT 04/M04 A3041 RMK A01 T00391040  RH  056%=      5-min Rain = 0
KWE1 141806Z 13003KT 04/M05 A3041 RMK A01 T00361046  RH  055%=      5-min Rain = 0
KWE1 141807Z 11004KT 04/M04 A304 RMK A01 T00371042  RH  056%=      5-min Rain = 0
KWE1 141808Z 11004KT 04/M04 A304 RMK A01 T00371042  RH  056%=      5-min Rain = 0
KWE1 141809Z 13003KT 04/M04 A304 RMK A01 T00371042  RH  056%=      5-min Rain = 0
KWE1 141810Z 16002KT 04/M04 A304 RMK A01 T00381043  RH  055%=      5-min Rain = 0
KWE1 141811Z 20002KT 04/M04 A304 RMK A01 T00391041  RH  056%=      5-min Rain = 0
KWE1 141812Z 13002KT 04/M04 A304 RMK A01 T00401040  RH  056%=      5-min Rain = 0
KWE1 141813Z 12004KT 04/M04 A304 RMK A01 T00421039  RH  055%=      5-min Rain = 0
KWE1 141814Z 13002KT 04/M05 A304 RMK A01 T00401046  RH  053%=      5-min Rain = 0
KWE1 141815Z 13002KT 04/M05 A304 RMK A01 T00391045  RH  055%=      5-min Rain = 0
KWE1 141816Z 13002KT 04/M04 A304 RMK A01 T00381044  RH  055%=      5-min Rain = 0
KWE1 141817Z 14005KT 04/M04 A304 RMK A01 T00381040  RH  057%=      5-min Rain = 0
KWE1 141818Z 14006KT 04/M04 A304 RMK A01 T00401038  RH  057%=      5-min Rain = 0
KWE1 141819Z 17008KT 04/M03 A304 RMK A01 T00441029  RH  059%=      5-min Rain = 0
KWE1 141820Z 20005KT 05/M03 A304 RMK A01 T00451032  RH  058%=      5-min Rain = 0
KWE1 141821Z 18007KT 04/M04 A3039 RMK A01 T00431035  RH  057%=      5-min Rain = 0
KWE1 141822Z 18006KT 04/M04 A3039 RMK A01 T00421035  RH  057%=      5-min Rain = 0
KWE1 141823Z 16007KT 04/M04 A3039 RMK A01 T00421035  RH  058%=      5-min Rain = 0
KWE1 141824Z 17007KT 04/M03 A3039 RMK A01 T00441030  RH  059%=      5-min Rain = 0
KWE1 141825Z 18004KT 05/M04 A3039 RMK A01 T00451035  RH  056%=      5-min Rain = 0
KWE1 141826Z 20003KT 04/M04 A3039 RMK A01 T00431042  RH  054%=      5-min Rain = 0
KWE1 141827Z 19003KT 04/M04 A3039 RMK A01 T00421042  RH  054%=      5-min Rain = 0
KWE1 141828Z 19005KT 04/M03 A3039 RMK A01 T00431034  RH  057%=      5-min Rain = 0
KWE1 141829Z 19004KT 05/M03 A3039 RMK A01 T00461029  RH  058%=      5-min Rain = 0
KWE1 141830Z 17005KT 05/M03 A3039 RMK A01 T00471031  RH  057%=      5-min Rain = 0
KWE1 141831Z 18004KT 05/M03 A3039 RMK A01 T00471034  RH  056%=      5-min Rain = 0
KWE1 141832Z 17004KT 05/M03 A3038 RMK A01 T00461029  RH  058%=      5-min Rain = 0
KWE1 141833Z 14005KT 05/M02 A3038 RMK A01 T00501022  RH  060%=      5-min Rain = 0
KWE1 141834Z 13006KT 05/M02 A3038 RMK A01 T00541023  RH  058%=      5-min Rain = 0
KWE1 141835Z 12004KT 05/M03 A3038 RMK A01 T00531031  RH  054%=      5-min Rain = 0
KWE1 141836Z 14004KT 05/M03 A3038 RMK A01 T00521033  RH  054%=      5-min Rain = 0
KWE1 141837Z 15005KT 05/M03 A3038 RMK A01 T00531028  RH  056%=      5-min Rain = 0
KWE1 141838Z 17004KT 05/M03 A3037 RMK A01 T00531033  RH  054%=      5-min Rain = 0
KWE1 141839Z 13004KT 05/M03 A3037 RMK A01 T00531033  RH  054%=      5-min Rain = 0
KWE1 141840Z 13007KT 05/M03 A3037 RMK A01 T00541031  RH  054%=      5-min Rain = 0
KWE1 141841Z 15006KT 05/M04 A3037 RMK A01 T00531037  RH  052%=      5-min Rain = 0
KWE1 141842Z 17005KT 05/M03 A3037 RMK A01 T00511032  RH  055%=      5-min Rain = 0
KWE1 141843Z 13006KT 05/M02 A3037 RMK A01 T00531024  RH  057%=      5-min Rain = 0
KWE1 141844Z 14005KT 05/M03 A3037 RMK A01 T00541031  RH  054%=      5-min Rain = 0
KWE1 141845Z 14007KT 05/M03 A3037 RMK A01 T00531033  RH  054%=      5-min Rain = 0
KWE1 141846Z 13007KT 05/M03 A3037 RMK A01 T00541031  RH  055%=      5-min Rain = 0
KWE1 141847Z 14003KT 05/M04 A3037 RMK A01 T00511041  RH  051%=      5-min Rain = 0
KWE1 141848Z 11003KT 05/M04 A3037 RMK A01 T00511039  RH  052%=      5-min Rain = 0
KWE1 141849Z 13006KT 05/M04 A3037 RMK A01 T00531036  RH  053%=      5-min Rain = 0
KWE1 141850Z 15007KT 06/M03 A3037 RMK A01 T00551032  RH  054%=      5-min Rain = 0
KWE1 141851Z 14006KT 06/M03 A3037 RMK A01 T00551030  RH  054%=      5-min Rain = 0
KWE1 141852Z 16006KT 06/M03 A3036 RMK A01 T00561031  RH  054%=      5-min Rain = 0
KWE1 141853Z 16005KT 06/M03 A3036 RMK A01 T00561030  RH  054%=      5-min Rain = 0
KWE1 141854Z 18003KT 06/M03 A3036 RMK A01 T00571032  RH  053%=      5-min Rain = 0
KWE1 141855Z 15006KT 06/M04 A3036 RMK A01 T00561037  RH  051%=      5-min Rain = 0
KWE1 141856Z 14005KT 06/M04 A3036 RMK A01 T00551035  RH  052%=      5-min Rain = 0
KWE1 141857Z 13002KT 06/M03 A3036 RMK A01 T00571029  RH  054%=      5-min Rain = 0
KWE1 141858Z 14002KT 06/M03 A3036 RMK A01 T00591032  RH  052%=      5-min Rain = 0
KWE1 141859Z 11007KT 06/M03 A3036 RMK A01 T00611028  RH  053%=      5-min Rain = 0
KWE1 141900Z 16009KT 06/M03 A3035 RMK A01 T00631028  RH  052%=      5-min Rain = 0
KWE1 141901Z 16008KT 06/M03 A3035 RMK A01 T00611028  RH  053%=      5-min Rain = 0
KWE1 141902Z 17008KT 06/M03 A3035 RMK A01 T00591033  RH  052%=      5-min Rain = 0
KWE1 141903Z 17009KT 06/M03 A3035 RMK A01 T00581032  RH  053%=      5-min Rain = 0
KWE1 141904Z 17007KT 06/M03 A3035 RMK A01 T00561034  RH  052%=      5-min Rain = 0
KWE1 141905Z 18005KT 05/M04 A3035 RMK A01 T00541040  RH  051%=      5-min Rain = 0
KWE1 141906Z 18005KT 05/M04 A3035 RMK A01 T00531037  RH  052%=      5-min Rain = 0
KWE1 141907Z 15006KT 06/M03 A3035 RMK A01 T00551033  RH  053%=      5-min Rain = 0
KWE1 141908Z 15006KT 06/M02 A3035 RMK A01 T00581023  RH  056%=      5-min Rain = 0
KWE1 141909Z 14008KT 06/M02 A3035 RMK A01 T00611022  RH  055%=      5-min Rain = 0
KWE1 141910Z 16008KT 06/M03 A3035 RMK A01 T00611025  RH  054%=      5-min Rain = 0
KWE1 141911Z 15005KT 06/M03 A3035 RMK A01 T00601030  RH  053%=      5-min Rain = 0
KWE1 141912Z 14006KT 06/M03 A3035 RMK A01 T00581034  RH  052%=      5-min Rain = 0
KWE1 141913Z 14005KT 06/M03 A3035 RMK A01 T00581029  RH  054%=      5-min Rain = 0
KWE1 141914Z 14006KT 06/M03 A3035 RMK A01 T00591033  RH  052%=      5-min Rain = 0
KWE1 141915Z 14005KT 06/M03 A3035 RMK A01 T00601029  RH  053%=      5-min Rain = 0
KWE1 141916Z 18005KT 06/M03 A3034 RMK A01 T00601029  RH  053%=      5-min Rain = 0
KWE1 141917Z 17005KT 06/M02 A3034 RMK A01 T00611023  RH  055%=      5-min Rain = 0
KWE1 141918Z 12006KT 06/M03 A3034 RMK A01 T00621027  RH  053%=      5-min Rain = 0
KWE1 141919Z 14009KT 06/M03 A3034 RMK A01 T00621027  RH  053%=      5-min Rain = 0
KWE1 141920Z 17008KT 07/M02 A3034 RMK A01 T00651020  RH  055%=      5-min Rain = 0
KWE1 141921Z 18008KT 07/M02 A3034 RMK A01 T00661022  RH  054%=      5-min Rain = 0
KWE1 141922Z 19006KT 07/M02 A3034 RMK A01 T00661018  RH  055%=      5-min Rain = 0
KWE1 141923Z 19006KT 06/M03 A3034 RMK A01 T00641025  RH  053%=      5-min Rain = 0
KWE1 141924Z 14006KT 06/M02 A3034 RMK A01 T00641021  RH  055%=      5-min Rain = 0
KWE1 141925Z 13004KT 07/M02 A3034 RMK A01 T00651023  RH  053%=      5-min Rain = 0
KWE1 141926Z 15003KT 07/M02 A3034 RMK A01 T00671016  RH  055%=      5-min Rain = 0
KWE1 141927Z 15004KT 07/M02 A3034 RMK A01 T00701021  RH  053%=      5-min Rain = 0
KWE1 141928Z 13008KT 07/M02 A3034 RMK A01 T00701023  RH  052%=      5-min Rain = 0
KWE1 141929Z 14006KT 07/M03 A3034 RMK A01 T00691026  RH  051%=      5-min Rain = 0
KWE1 141930Z 15006KT 07/M03 A3034 RMK A01 T00671025  RH  052%=      5-min Rain = 0
KWE1 141931Z 16004KT 07/M03 A3034 RMK A01 T00661030  RH  050%=      5-min Rain = 0
KWE1 141932Z 16006KT 07/M03 A3033 RMK A01 T00651030  RH  051%=      5-min Rain = 0
KWE1 141933Z 17004KT 07/M03 A3033 RMK A01 T00651030  RH  051%=      5-min Rain = 0
KWE1 141934Z 16005KT 07/M03 A3033 RMK A01 T00651026  RH  052%=      5-min Rain = 0
KWE1 141935Z 15003KT 07/M03 A3033 RMK A01 T00651030  RH  051%=      5-min Rain = 0
KWE1 141936Z 16005KT 07/M03 A3033 RMK A01 T00671029  RH  050%=      5-min Rain = 0
KWE1 141937Z 14007KT 07/M02 A3033 RMK A01 T00681018  RH  054%=      5-min Rain = 0
KWE1 141938Z 16007KT 07/M01 A3033 RMK A01 T00721010  RH  056%=      5-min Rain = 0
KWE1 141939Z 17006KT 08/M00 A3033 RMK A01 T00751004  RH  057%=      5-min Rain = 0
KWE1 141940Z 14007KT 08/M01 A3033 RMK A01 T00771010  RH  054%=      5-min Rain = 0
KWE1 141941Z 14006KT 08/M02 A3033 RMK A01 T00751020  RH  051%=      5-min Rain = 0
KWE1 141942Z 18004KT 07/M02 A3033 RMK A01 T00731022  RH  051%=      5-min Rain = 0
KWE1 141943Z 17005KT 07/M02 A3033 RMK A01 T00721023  RH  051%=      5-min Rain = 0
KWE1 141944Z 14006KT 07/M02 A3033 RMK A01 T00731017  RH  053%=      5-min Rain = 0
KWE1 141945Z 15005KT 07/M02 A3033 RMK A01 T00721024  RH  050%=      5-min Rain = 0
KWE1 141946Z 19004KT 07/M02 A3033 RMK A01 T00711024  RH  051%=      5-min Rain = 0
KWE1 141947Z 17007KT 07/M02 A3032 RMK A01 T00721020  RH  052%=      5-min Rain = 0
KWE1 141948Z 15007KT 07/M02 A3032 RMK A01 T00721023  RH  051%=      5-min Rain = 0
KWE1 141949Z 15007KT 07/M02 A3032 RMK A01 T00721020  RH  052%=      5-min Rain = 0
KWE1 141950Z 15007KT 08/M02 A3032 RMK A01 T00751017  RH  052%=      5-min Rain = 0
KWE1 141951Z 14008KT 08/M02 A3032 RMK A01 T00751022  RH  050%=      5-min Rain = 0
KWE1 141952Z 13007KT 08/M02 A3032 RMK A01 T00751024  RH  050%=      5-min Rain = 0
KWE1 141953Z 14007KT 08/M02 A3032 RMK A01 T00751019  RH  051%=      5-min Rain = 0
KWE1 141954Z 15007KT 08/M02 A3032 RMK A01 T00751020  RH  051%=      5-min Rain = 0
KWE1 141955Z 15005KT 08/M02 A3032 RMK A01 T00751023  RH  050%=      5-min Rain = 0
KWE1 141956Z 15004KT 07/M03 A3032 RMK A01 T00741030  RH  048%=      5-min Rain = 0
KWE1 141957Z 13002KT 07/M03 A3032 RMK A01 T00731029  RH  048%=      5-min Rain = 0
KWE1 141958Z 20005KT 07/M03 A3032 RMK A01 T00731026  RH  049%=      5-min Rain = 0
KWE1 141959Z 18005KT 07/M03 A3031 RMK A01 T00741027  RH  049%=      5-min Rain = 0
KWE1 142000Z 16006KT 07/M02 A3031 RMK A01 T00741020  RH  051%=      5-min Rain = 0
KWE1 142001Z 17008KT 07/M02 A3031 RMK A01 T00741020  RH  051%=      5-min Rain = 0
KWE1 142002Z 14004KT 08/M02 A3031 RMK A01 T00751022  RH  050%=      5-min Rain = 0
KWE1 142003Z 16005KT 08/M03 A3031 RMK A01 T00751025  RH  049%=      5-min Rain = 0
KWE1 142004Z 19005KT 08/M02 A3031 RMK A01 T00751020  RH  051%=      5-min Rain = 0
KWE1 142005Z 23004KT 07/M03 A3031 RMK A01 T00741025  RH  049%=      5-min Rain = 0
KWE1 142006Z 21004KT 07/M03 A3031 RMK A01 T00731031  RH  047%=      5-min Rain = 0
KWE1 142007Z 15005KT 07/M02 A3031 RMK A01 T00731023  RH  051%=      5-min Rain = 0
KWE1 142008Z 12006KT 08/M02 A3031 RMK A01 T00761020  RH  051%=      5-min Rain = 0
KWE1 142009Z 13008KT 08/M02 A3031 RMK A01 T00781018  RH  050%=      5-min Rain = 0
KWE1 142010Z 15005KT 08/M02 A3031 RMK A01 T00801021  RH  049%=      5-min Rain = 0
KWE1 142011Z 15007KT 08/M01 A3031 RMK A01 T00801012  RH  052%=      5-min Rain = 0
KWE1 142012Z 14006KT 08/M01 A303 RMK A01 T00821008  RH  053%=      5-min Rain = 0
KWE1 142013Z 13007KT 08/M01 A303 RMK A01 T00831013  RH  051%=      5-min Rain = 0
KWE1 142014Z 12007KT 08/M02 A303 RMK A01 T00831018  RH  049%=      5-min Rain = 0
KWE1 142015Z 14008KT 08/M02 A303 RMK A01 T00841016  RH  049%=      5-min Rain = 0
KWE1 142016Z 15006KT 08/M01 A303 RMK A01 T00831014  RH  050%=      5-min Rain = 0
KWE1 142017Z 16005KT 09/M01 A303 RMK A01 T00851007  RH  052%=      5-min Rain = 0
KWE1 142018Z 15007KT 09/00 A303 RMK A01 T00880001  RH  054%=      5-min Rain = 0
KWE1 142019Z 13005KT 09/M01 A303 RMK A01 T00891011  RH  050%=      5-min Rain = 0
KWE1 142020Z 16003KT 09/M01 A303 RMK A01 T00881013  RH  049%=      5-min Rain = 0
KWE1 142021Z 19006KT 09/M01 A303 RMK A01 T00871013  RH  049%=      5-min Rain = 0
KWE1 142022Z 17005KT 09/M02 A303 RMK A01 T00871016  RH  048%=      5-min Rain = 0
KWE1 142023Z 17004KT 09/M02 A303 RMK A01 T00851024  RH  046%=      5-min Rain = 0
KWE1 142024Z 20003KT 08/M03 A303 RMK A01 T00841025  RH  046%=      5-min Rain = 0
KWE1 142025Z 15002KT 08/M02 A303 RMK A01 T00841021  RH  048%=      5-min Rain = 0
KWE1 142026Z 19004KT 09/M02 A303 RMK A01 T00861019  RH  048%=      5-min Rain = 0
KWE1 142027Z 14007KT 09/M01 A3029 RMK A01 T00881011  RH  050%=      5-min Rain = 0
KWE1 142028Z 13006KT 09/M02 A3029 RMK A01 T00891015  RH  048%=      5-min Rain = 0
KWE1 142029Z 16005KT 09/M02 A3029 RMK A01 T00881016  RH  048%=      5-min Rain = 0
KWE1 142030Z 14004KT 09/M02 A3029 RMK A01 T00871019  RH  047%=      5-min Rain = 0
KWE1 142031Z 16007KT 09/M02 A3029 RMK A01 T00861015  RH  049%=      5-min Rain = 0
KWE1 142032Z 16006KT 09/00 A3029 RMK A01 T00890000  RH  054%=      5-min Rain = 0
KWE1 142033Z 18007KT 09/00 A3029 RMK A01 T00930004  RH  054%=      5-min Rain = 0
KWE1 142034Z 17007KT 09/00 A3029 RMK A01 T00940002  RH  053%=      5-min Rain = 0
KWE1 142035Z 17006KT 10/00 A3029 RMK A01 T00950000  RH  052%=      5-min Rain = 0
KWE1 142036Z 15005KT 09/M01 A3029 RMK A01 T00931009  RH  049%=      5-min Rain = 0
KWE1 142037Z 11006KT 09/M01 A3029 RMK A01 T00921014  RH  047%=      5-min Rain = 0
KWE1 142038Z 11005KT 09/M02 A3029 RMK A01 T00891022  RH  046%=      5-min Rain = 0
KWE1 142039Z 15005KT 09/M02 A3029 RMK A01 T00871020  RH  047%=      5-min Rain = 0
KWE1 142040Z 19005KT 09/M02 A3029 RMK A01 T00871016  RH  048%=      5-min Rain = 0
KWE1 142041Z 15004KT 09/M02 A3029 RMK A01 T00871018  RH  047%=      5-min Rain = 0
KWE1 142042Z 14004KT 09/M02 A3029 RMK A01 T00871019  RH  047%=      5-min Rain = 0
KWE1 142043Z 17004KT 09/M02 A3029 RMK A01 T00881022  RH  046%=      5-min Rain = 0
KWE1 142044Z 20004G9KT 09/M02 A3029 RMK A01 T00881022  RH  046%=      5-min Rain = 0
KWE1 142045Z 16006KT 09/M00 A3029 RMK A01 T00921003  RH  052%=      5-min Rain = 0
KWE1 142046Z 18007KT 10/M00 A3029 RMK A01 T00961003  RH  050%=      5-min Rain = 0
KWE1 142047Z 18009KT 10/M01 A3029 RMK A01 T00951014  RH  047%=      5-min Rain = 0
KWE1 142048Z 18008KT 09/M00 A3029 RMK A01 T00931004  RH  051%=      5-min Rain = 0
KWE1 142049Z 19007KT 09/M01 A3029 RMK A01 T00931007  RH  050%=      5-min Rain = 0
KWE1 142050Z 19008KT 09/M01 A3029 RMK A01 T00931010  RH  048%=      5-min Rain = 0
KWE1 142051Z 20008KT 09/M01 A3028 RMK A01 T00931012  RH  048%=      5-min Rain = 0
KWE1 142052Z 20006KT 09/M02 A3028 RMK A01 T00921019  RH  046%=      5-min Rain = 0
KWE1 142053Z 15009KT 09/M02 A3028 RMK A01 T00921015  RH  047%=      5-min Rain = 0
KWE1 142054Z 14009KT 09/M02 A3028 RMK A01 T00911022  RH  045%=      5-min Rain = 0
KWE1 142055Z 16014KT 09/M01 A3028 RMK A01 T00921011  RH  049%=      5-min Rain = 0
KWE1 142056Z 17011KT 09/M01 A3028 RMK A01 T00921010  RH  049%=      5-min Rain = 0
KWE1 142057Z 17010KT 09/M00 A3028 RMK A01 T00931002  RH  052%=      5-min Rain = 0
KWE1 142058Z 17007KT 09/M01 A3028 RMK A01 T00941005  RH  050%=      5-min Rain = 0
KWE1 142059Z 17007KT 09/M01 A3028 RMK A01 T00941011  RH  048%=      5-min Rain = 0
KWE1 142100Z 18008KT 10/00 A3028 RMK A01 T009500-0  RH  051%=      5-min Rain = 0
KWE1 142101Z 19007KT 10/M00 A3028 RMK A01 T00971001  RH  051%=      5-min Rain = 0
KWE1 142102Z 19008KT 10/M00 A3028 RMK A01 T00971004  RH  049%=      5-min Rain = 0
KWE1 142103Z 18005KT 10/M01 A3028 RMK A01 T00961008  RH  048%=      5-min Rain = 0
KWE1 142104Z 16006KT 10/M01 A3028 RMK A01 T00961007  RH  048%=      5-min Rain = 0
KWE1 142105Z 16008KT 10/M01 A3028 RMK A01 T00971005  RH  049%=      5-min Rain = 0
KWE1 142106Z 17009KT 10/M00 A3028 RMK A01 T00981004  RH  049%=      5-min Rain = 0
KWE1 142107Z 17006KT 10/M01 A3028 RMK A01 T00981007  RH  048%=      5-min Rain = 0
KWE1 142108Z 15007KT 10/M01 A3027 RMK A01 T00981006  RH  048%=      5-min Rain = 0
KWE1 142109Z 18009KT 10/M01 A3027 RMK A01 T00991005  RH  049%=      5-min Rain = 0
KWE1 142110Z 18008KT 10/M01 A3027 RMK A01 T00991005  RH  048%=      5-min Rain = 0
KWE1 142111Z 18009KT 10/M01 A3027 RMK A01 T00991006  RH  048%=      5-min Rain = 0
KWE1 142112Z 17008G14KT 10/M01 A3027 RMK A01 T00981011  RH  047%=      5-min Rain = 0
KWE1 142113Z 18012KT 10/M01 A3027 RMK A01 T00981006  RH  048%=      5-min Rain = 0
KWE1 142114Z 17011KT 10/M01 A3027 RMK A01 T00981005  RH  049%=      5-min Rain = 0
KWE1 142115Z 17010KT 10/M00 A3027 RMK A01 T00981002  RH  050%=      5-min Rain = 0
KWE1 142116Z 18011KT 10/M00 A3027 RMK A01 T00991001  RH  050%=      5-min Rain = 0
KWE1 142117Z 19012KT 10/M00 A3027 RMK A01 T00991003  RH  049%=      5-min Rain = 0
KWE1 142118Z 19009KT 10/M01 A3027 RMK A01 T00971006  RH  049%=      5-min Rain = 0
KWE1 142119Z 18007KT 10/M01 A3027 RMK A01 T00961009  RH  048%=      5-min Rain = 0
KWE1 142120Z 19008KT 10/01 A3027 RMK A01 T00980005  RH  052%=      5-min Rain = 0
KWE1 142121Z 19009KT 10/M00 A3027 RMK A01 T01001001  RH  049%=      5-min Rain = 0
KWE1 142122Z 18007KT 10/M01 A3027 RMK A01 T00991012  RH  046%=      5-min Rain = 0
KWE1 142123Z 18009KT 10/M00 A3027 RMK A01 T00981004  RH  049%=      5-min Rain = 0
KWE1 142124Z 19010KT 10/00 A3027 RMK A01 T00990002  RH  051%=      5-min Rain = 0
KWE1 142125Z 20010KT 10/M00 A3027 RMK A01 T01001002  RH  049%=      5-min Rain = 0
KWE1 142126Z 20010KT 10/M01 A3027 RMK A01 T01001006  RH  048%=      5-min Rain = 0
KWE1 142127Z 21008KT 10/M01 A3027 RMK A01 T00991005  RH  048%=      5-min Rain = 0
KWE1 142128Z 20008KT 10/M01 A3027 RMK A01 T01001009  RH  047%=      5-min Rain = 0
KWE1 142129Z 18009KT 10/M01 A3027 RMK A01 T01001007  RH  047%=      5-min Rain = 0
KWE1 142130Z 17009KT 10/M00 A3027 RMK A01 T01001002  RH  049%=      5-min Rain = 0
KWE1 142131Z 18008KT 10/M00 A3026 RMK A01 T01011003  RH  048%=      5-min Rain = 0
KWE1 142132Z 19009KT 10/M01 A3026 RMK A01 T01001005  RH  048%=      5-min Rain = 0
KWE1 142133Z 20007KT 10/00 A3026 RMK A01 T01010001  RH  050%=      5-min Rain = 0
KWE1 142134Z 20008KT 10/M01 A3026 RMK A01 T01021005  RH  047%=      5-min Rain = 0
KWE1 142135Z 20009KT 10/M01 A3026 RMK A01 T01011011  RH  045%=      5-min Rain = 0
KWE1 142136Z 19008KT 10/M01 A3026 RMK A01 T01011006  RH  047%=      5-min Rain = 0
KWE1 142137Z 19008KT 10/M00 A3026 RMK A01 T01011003  RH  048%=      5-min Rain = 0
KWE1 142138Z 17008KT 10/M00 A3026 RMK A01 T01011002  RH  049%=      5-min Rain = 0
KWE1 142139Z 16009G14KT 10/M00 A3026 RMK A01 T01021002  RH  048%=      5-min Rain = 0
KWE1 142140Z 17012KT 10/M00 A3026 RMK A01 T01031001  RH  049%=      5-min Rain = 0
KWE1 142141Z 17011KT 10/M00 A3026 RMK A01 T01031003  RH  048%=      5-min Rain = 0
KWE1 142142Z 17011KT 10/00 A3026 RMK A01 T010200-0  RH  049%=      5-min Rain = 0
KWE1 142143Z 16010KT 10/M01 A3026 RMK A01 T01021007  RH  047%=      5-min Rain = 0
KWE1 142144Z 16008KT 10/M01 A3026 RMK A01 T01021009  RH  046%=      5-min Rain = 0
KWE1 142145Z 17009KT 10/M01 A3026 RMK A01 T01011007  RH  047%=      5-min Rain = 0
KWE1 142146Z 19009KT 10/M01 A3026 RMK A01 T01021006  RH  047%=      5-min Rain = 0
KWE1 142147Z 17008KT 10/00 A3026 RMK A01 T01030000  RH  049%=      5-min Rain = 0
KWE1 142148Z 17009KT 10/00 A3026 RMK A01 T01040002  RH  049%=      5-min Rain = 0
KWE1 142149Z 18008KT 10/M00 A3025 RMK A01 T01041004  RH  047%=      5-min Rain = 0
KWE1 142150Z 17008KT 10/M00 A3025 RMK A01 T01031001  RH  048%=      5-min Rain = 0
KWE1 142151Z 15010KT 10/00 A3025 RMK A01 T01040002  RH  049%=      5-min Rain = 0
KWE1 142152Z 16010KT 11/00 A3025 RMK A01 T01050000  RH  048%=      5-min Rain = 0
KWE1 142153Z 16008KT 11/M00 A3025 RMK A01 T01051004  RH  047%=      5-min Rain = 0
KWE1 142154Z 16007KT 10/M01 A3025 RMK A01 T01041007  RH  046%=      5-min Rain = 0
KWE1 142155Z 16008KT 10/M00 A3025 RMK A01 T01041003  RH  047%=      5-min Rain = 0
KWE1 142156Z 15007KT 11/M01 A3025 RMK A01 T01051008  RH  045%=      5-min Rain = 0
KWE1 142157Z 17007KT 11/M00 A3025 RMK A01 T01051004  RH  047%=      5-min Rain = 0
KWE1 142158Z 17005KT 11/M00 A3025 RMK A01 T01061003  RH  047%=      5-min Rain = 0
KWE1 142159Z 16007KT 11/M01 A3025 RMK A01 T01061007  RH  045%=      5-min Rain = 0
KWE1 142200Z 17008KT 11/M00 A3025 RMK A01 T01061003  RH  047%=      5-min Rain = 0
KWE1 142201Z 18007KT 11/M01 A3025 RMK A01 T01061005  RH  046%=      5-min Rain = 0
KWE1 142202Z 19006KT 11/M01 A3025 RMK A01 T01061006  RH  046%=      5-min Rain = 0
KWE1 142203Z 18005KT 11/M00 A3025 RMK A01 T01061004  RH  046%=      5-min Rain = 0
KWE1 142204Z 18006KT 11/M01 A3025 RMK A01 T01071007  RH  045%=      5-min Rain = 0
KWE1 142205Z 15006KT 11/M00 A3025 RMK A01 T01071003  RH  047%=      5-min Rain = 0
KWE1 142206Z 15006KT 11/M01 A3025 RMK A01 T01071006  RH  046%=      5-min Rain = 0
KWE1 142207Z 18007KT 11/00 A3025 RMK A01 T01070000  RH  047%=      5-min Rain = 0
KWE1 142208Z 19006KT 11/M01 A3025 RMK A01 T01081005  RH  046%=      5-min Rain = 0
KWE1 142209Z 16007KT 11/M00 A3025 RMK A01 T01071003  RH  047%=      5-min Rain = 0
KWE1 142210Z 15006KT 11/M00 A3024 RMK A01 T01071003  RH  047%=      5-min Rain = 0
KWE1 142211Z 17007KT 11/M00 A3025 RMK A01 T01081001  RH  047%=      5-min Rain = 0
KWE1 142212Z 16007KT 11/M00 A3024 RMK A01 T01091003  RH  046%=      5-min Rain = 0
KWE1 142213Z 17009KT 11/00 A3024 RMK A01 T01090002  RH  048%=      5-min Rain = 0
KWE1 142214Z 15009KT 11/01 A3024 RMK A01 T01100009  RH  050%=      5-min Rain = 0
KWE1 142215Z 17007KT 11/01 A3024 RMK A01 T01110008  RH  049%=      5-min Rain = 0
KWE1 142216Z 16009KT 11/01 A3024 RMK A01 T01110005  RH  048%=      5-min Rain = 0
KWE1 142217Z 15009KT 11/00 A3024 RMK A01 T011100-0  RH  046%=      5-min Rain = 0
KWE1 142218Z 17007KT 11/00 A3024 RMK A01 T011100-0  RH  046%=      5-min Rain = 0
KWE1 142219Z 17009KT 11/01 A3024 RMK A01 T01110005  RH  048%=      5-min Rain = 0
KWE1 142220Z 17008KT 11/M00 A3024 RMK A01 T01111002  RH  046%=      5-min Rain = 0
KWE1 142221Z 17007KT 11/M01 A3024 RMK A01 T01091006  RH  045%=      5-min Rain = 0
KWE1 142222Z 17008KT 11/M00 A3024 RMK A01 T01091004  RH  046%=      5-min Rain = 0
KWE1 142223Z 15008KT 11/M00 A3024 RMK A01 T01091001  RH  046%=      5-min Rain = 0
KWE1 142224Z 17006KT 11/00 A3024 RMK A01 T01100000  RH  047%=      5-min Rain = 0
KWE1 142225Z 17006KT 11/M00 A3024 RMK A01 T01111002  RH  046%=      5-min Rain = 0
KWE1 142226Z 17007KT 11/00 A3024 RMK A01 T01120004  RH  047%=      5-min Rain = 0
KWE1 142227Z 17006KT 11/M00 A3024 RMK A01 T01121001  RH  046%=      5-min Rain = 0
KWE1 142228Z 17007KT 11/01 A3024 RMK A01 T01130007  RH  048%=      5-min Rain = 0
KWE1 142229Z 19008KT 11/01 A3024 RMK A01 T01140012  RH  049%=      5-min Rain = 0
KWE1 142230Z 18007KT 11/00 A3024 RMK A01 T011400-0  RH  045%=      5-min Rain = 0
KWE1 142231Z 18008KT 11/01 A3024 RMK A01 T01130006  RH  048%=      5-min Rain = 0
KWE1 142232Z 18008KT 11/01 A3024 RMK A01 T01130014  RH  050%=      5-min Rain = 0
KWE1 142233Z 18008KT 11/01 A3024 RMK A01 T01140013  RH  050%=      5-min Rain = 0
KWE1 142234Z 16008KT 11/01 A3024 RMK A01 T01140013  RH  050%=      5-min Rain = 0
KWE1 142235Z 15009KT 12/01 A3024 RMK A01 T01150007  RH  048%=      5-min Rain = 0
KWE1 142236Z 16009KT 11/M00 A3024 RMK A01 T01141002  RH  045%=      5-min Rain = 0
KWE1 142237Z 16007KT 11/M01 A3024 RMK A01 T01131006  RH  044%=      5-min Rain = 0
KWE1 142238Z 16008KT 11/M01 A3024 RMK A01 T01131006  RH  044%=      5-min Rain = 0
KWE1 142239Z 16006KT 11/M01 A3024 RMK A01 T01131005  RH  044%=      5-min Rain = 0
KWE1 142240Z 18007KT 11/M00 A3024 RMK A01 T01131002  RH  045%=      5-min Rain = 0
KWE1 142241Z 17007KT 11/M01 A3024 RMK A01 T01131006  RH  044%=      5-min Rain = 0
KWE1 142242Z 17008KT 11/M00 A3024 RMK A01 T01121004  RH  044%=      5-min Rain = 0
KWE1 142243Z 16007KT 11/00 A3023 RMK A01 T01130003  RH  047%=      5-min Rain = 0
KWE1 142244Z 17009KT 11/M00 A3023 RMK A01 T01131001  RH  045%=      5-min Rain = 0
KWE1 142245Z 17008KT 11/M00 A3023 RMK A01 T01131004  RH  045%=      5-min Rain = 0
KWE1 142246Z 17008KT 11/00 A3023 RMK A01 T01120000  RH  046%=      5-min Rain = 0
KWE1 142247Z 17007KT 11/M00 A3023 RMK A01 T01121002  RH  045%=      5-min Rain = 0
KWE1 142248Z 16006KT 11/00 A3023 RMK A01 T01120003  RH  047%=      5-min Rain = 0
KWE1 142249Z 14006KT 11/00 A3023 RMK A01 T01130004  RH  047%=      5-min Rain = 0
KWE1 142250Z 15007KT 11/00 A3023 RMK A01 T01130004  RH  047%=      5-min Rain = 0
KWE1 142251Z 15008KT 12/00 A3023 RMK A01 T01150004  RH  047%=      5-min Rain = 0
KWE1 142252Z 15010KT 12/00 A3023 RMK A01 T01150004  RH  046%=      5-min Rain = 0
KWE1 142253Z 15010KT 12/00 A3023 RMK A01 T01150001  RH  045%=      5-min Rain = 0
KWE1 142254Z 16009KT 11/01 A3023 RMK A01 T01140005  RH  047%=      5-min Rain = 0
KWE1 142255Z 15009KT 11/01 A3023 RMK A01 T01140007  RH  048%=      5-min Rain = 0
KWE1 142256Z 16010KT 11/00 A3023 RMK A01 T01140003  RH  046%=      5-min Rain = 0
KWE1 142257Z 16008KT 11/00 A3023 RMK A01 T011400-0  RH  045%=      5-min Rain = 0
KWE1 142258Z 15006KT 11/00 A3023 RMK A01 T011400-0  RH  045%=      5-min Rain = 0
KWE1 142259Z 15007KT 11/00 A3023 RMK A01 T01140004  RH  047%=      5-min Rain = 0
KWE1 142300Z 15008KT 11/M00 A3023 RMK A01 T01141003  RH  044%=      5-min Rain = 0
KWE1 142301Z 15009KT 11/M00 A3023 RMK A01 T01141001  RH  045%=      5-min Rain = 0
KWE1 142302Z 15011KT 11/00 A3023 RMK A01 T01140002  RH  046%=      5-min Rain = 0
KWE1 142303Z 15011KT 11/00 A3022 RMK A01 T01140000  RH  045%=      5-min Rain = 0
KWE1 142304Z 16011KT 11/M00 A3022 RMK A01 T01131003  RH  044%=      5-min Rain = 0
KWE1 142305Z 15010KT 11/M00 A3022 RMK A01 T01131001  RH  045%=      5-min Rain = 0
KWE1 142306Z 16008KT 11/00 A3022 RMK A01 T01130000  RH  046%=      5-min Rain = 0
KWE1 142307Z 16008KT 11/00 A3022 RMK A01 T01130003  RH  047%=      5-min Rain = 0
KWE1 142308Z 16009KT 11/00 A3022 RMK A01 T01130003  RH  047%=      5-min Rain = 0
KWE1 142309Z 16009KT 11/M00 A3022 RMK A01 T01131002  RH  045%=      5-min Rain = 0
KWE1 142310Z 16007KT 11/M00 A3022 RMK A01 T01121004  RH  045%=      5-min Rain = 0
KWE1 142311Z 16006KT 11/01 A3022 RMK A01 T01130005  RH  048%=      5-min Rain = 0
KWE1 142312Z 16008KT 11/00 A3022 RMK A01 T01130000  RH  046%=      5-min Rain = 0
KWE1 142313Z 16008KT 11/M00 A3022 RMK A01 T01131002  RH  045%=      5-min Rain = 0
KWE1 142314Z 17007KT 11/00 A3022 RMK A01 T011300-0  RH  045%=      5-min Rain = 0
KWE1 142315Z 17006KT 11/00 A3022 RMK A01 T01130004  RH  047%=      5-min Rain = 0
KWE1 142316Z 16006KT 11/01 A3022 RMK A01 T01140006  RH  048%=      5-min Rain = 0
KWE1 142317Z 15007KT 11/01 A3022 RMK A01 T01140011  RH  049%=      5-min Rain = 0
KWE1 142318Z 16007KT 11/01 A3022 RMK A01 T01140006  RH  047%=      5-min Rain = 0
KWE1 142319Z 14007KT 11/01 A3022 RMK A01 T01140010  RH  049%=      5-min Rain = 0
KWE1 142320Z 14006KT 12/01 A3022 RMK A01 T01150008  RH  048%=      5-min Rain = 0
KWE1 142321Z 14006KT 11/00 A3022 RMK A01 T01130004  RH  047%=      5-min Rain = 0
KWE1 142322Z 14005KT 11/01 A3022 RMK A01 T01130006  RH  048%=      5-min Rain = 0
KWE1 142323Z 13004KT 11/01 A3022 RMK A01 T01120007  RH  048%=      5-min Rain = 0
KWE1 142324Z 14005KT 11/01 A3022 RMK A01 T01120011  RH  050%=      5-min Rain = 0
KWE1 142325Z 13004KT 11/01 A3022 RMK A01 T01120012  RH  050%=      5-min Rain = 0
KWE1 142326Z 13004KT 11/01 A3022 RMK A01 T01120013  RH  050%=      5-min Rain = 0
KWE1 142327Z 13004KT 11/01 A3022 RMK A01 T01120010  RH  049%=      5-min Rain = 0
KWE1 142328Z 13004KT 11/01 A3022 RMK A01 T01120010  RH  050%=      5-min Rain = 0
KWE1 142329Z 15004KT 11/01 A3022 RMK A01 T01120009  RH  049%=      5-min Rain = 0
KWE1 142330Z 15004KT 11/01 A3022 RMK A01 T01110011  RH  050%=      5-min Rain = 0
KWE1 142331Z 17006KT 11/02 A3022 RMK A01 T01120016  RH  052%=      5-min Rain = 0
KWE1 142332Z 15005KT 11/01 A3022 RMK A01 T01120007  RH  048%=      5-min Rain = 0
KWE1 142333Z 15005KT 11/01 A3022 RMK A01 T01140011  RH  049%=      5-min Rain = 0
KWE1 142334Z 16005KT 11/01 A3022 RMK A01 T01130014  RH  050%=      5-min Rain = 0
KWE1 142335Z 16005KT 11/01 A3022 RMK A01 T01140011  RH  049%=      5-min Rain = 0
KWE1 142336Z 16005KT 11/01 A3022 RMK A01 T01140013  RH  050%=      5-min Rain = 0
KWE1 142337Z 15005KT 11/02 A3022 RMK A01 T01140015  RH  051%=      5-min Rain = 0
KWE1 142338Z 15005KT 11/02 A3022 RMK A01 T01140015  RH  050%=      5-min Rain = 0
KWE1 142339Z 15005KT 11/02 A3022 RMK A01 T01140015  RH  051%=      5-min Rain = 0
KWE1 142340Z 16005KT 11/02 A3022 RMK A01 T01140017  RH  051%=      5-min Rain = 0
KWE1 142341Z 16005KT 11/02 A3022 RMK A01 T01140018  RH  052%=      5-min Rain = 0
KWE1 142342Z 16006KT 11/02 A3022 RMK A01 T01140015  RH  051%=      5-min Rain = 0
KWE1 142343Z 17006KT 11/02 A3022 RMK A01 T01130015  RH  051%=      5-min Rain = 0
KWE1 142344Z 16005KT 11/02 A3022 RMK A01 T01130017  RH  052%=      5-min Rain = 0
KWE1 142345Z 15005KT 11/02 A3022 RMK A01 T01130018  RH  052%=      5-min Rain = 0
KWE1 142346Z 16004KT 11/02 A3021 RMK A01 T01120024  RH  055%=      5-min Rain = 0
KWE1 142347Z 17005KT 11/03 A3021 RMK A01 T01120025  RH  055%=      5-min Rain = 0
KWE1 142348Z 16005KT 11/02 A3021 RMK A01 T01110023  RH  055%=      5-min Rain = 0
KWE1 142349Z 17005KT 11/02 A3021 RMK A01 T01110019  RH  053%=      5-min Rain = 0
KWE1 142350Z 17006KT 11/02 A3022 RMK A01 T01100021  RH  054%=      5-min Rain = 0
KWE1 142351Z 18009KT 11/02 A3022 RMK A01 T01100017  RH  053%=      5-min Rain = 0
KWE1 142352Z 18008KT 11/02 A3022 RMK A01 T01090017  RH  053%=      5-min Rain = 0
KWE1 142353Z 18007KT 11/02 A3022 RMK A01 T01080020  RH  055%=      5-min Rain = 0
KWE1 142354Z 18007KT 11/02 A3022 RMK A01 T01070019  RH  054%=      5-min Rain = 0
KWE1 142355Z 19008KT 11/02 A3022 RMK A01 T01070020  RH  055%=      5-min Rain = 0
KWE1 142356Z 19008KT 11/02 A3022 RMK A01 T01060023  RH  056%=      5-min Rain = 0
KWE1 142357Z 19009KT 11/02 A3022 RMK A01 T01050022  RH  056%=      5-min Rain = 0
KWE1 142358Z 18008KT 10/02 A3022 RMK A01 T01040020  RH  056%=      5-min Rain = 0
KWE1 142359Z 18008KT 10/02 A3022 RMK A01 T01040023  RH  057%=      5-min Rain = 0
KWE1 150000Z 18009KT 10/02 A3022 RMK A01 T01030022  RH  057%=      5-min Rain = 0
KWE1 150001Z 17008KT 10/02 A3022 RMK A01 T01030020  RH  056%=      5-min Rain = 0
KWE1 150002Z 17008KT 10/02 A3022 RMK A01 T01020021  RH  057%=      5-min Rain = 0
KWE1 150003Z 17007KT 10/02 A3022 RMK A01 T01010023  RH  058%=      5-min Rain = 0
KWE1 150004Z 17007KT 10/02 A3022 RMK A01 T01000022  RH  058%=      5-min Rain = 0
KWE1 150005Z 16007KT 10/02 A3022 RMK A01 T01000021  RH  058%=      5-min Rain = 0
KWE1 150006Z 16006KT 10/02 A3022 RMK A01 T00990021  RH  058%=      5-min Rain = 0
KWE1 150007Z 16005KT 10/02 A3022 RMK A01 T00990022  RH  059%=      5-min Rain = 0
KWE1 150008Z 17004KT 10/02 A3022 RMK A01 T00980023  RH  060%=      5-min Rain = 0
KWE1 150009Z 16005KT 10/02 A3022 RMK A01 T00970024  RH  060%=      5-min Rain = 0
KWE1 150010Z 17004KT 10/02 A3022 RMK A01 T00960021  RH  059%=      5-min Rain = 0
KWE1 150011Z 17004KT 10/02 A3022 RMK A01 T00960024  RH  061%=      5-min Rain = 0
KWE1 150012Z 16005KT 10/03 A3022 RMK A01 T00950025  RH  062%=      5-min Rain = 0
KWE1 150013Z 15005KT 09/02 A3022 RMK A01 T00940024  RH  062%=      5-min Rain = 0
KWE1 150014Z 16005KT 09/02 A3022 RMK A01 T00930021  RH  061%=      5-min Rain = 0
KWE1 150015Z 16005KT 09/02 A3022 RMK A01 T00920020  RH  060%=      5-min Rain = 0
KWE1 150016Z 16005KT 09/02 A3022 RMK A01 T00920021  RH  061%=      5-min Rain = 0
KWE1 150017Z 16005KT 09/02 A3022 RMK A01 T00910021  RH  062%=      5-min Rain = 0
KWE1 150018Z 16006KT 09/02 A3022 RMK A01 T00890019  RH  061%=      5-min Rain = 0
KWE1 150019Z 17006KT 09/02 A3022 RMK A01 T00880017  RH  061%=      5-min Rain = 0
KWE1 150020Z 16006KT 09/02 A3022 RMK A01 T00880017  RH  061%=      5-min Rain = 0
KWE1 150021Z 16005KT 09/02 A3022 RMK A01 T00870017  RH  061%=      5-min Rain = 0
KWE1 150022Z 16005KT 09/02 A3022 RMK A01 T00860019  RH  063%=      5-min Rain = 0
KWE1 150023Z 16005KT 09/02 A3022 RMK A01 T00850020  RH  063%=      5-min Rain = 0
KWE1 150024Z 16006KT 08/02 A3022 RMK A01 T00840020  RH  064%=      5-min Rain = 0
KWE1 150025Z 16006KT 08/02 A3022 RMK A01 T00830020  RH  064%=      5-min Rain = 0
KWE1 150026Z 15006KT 08/02 A3022 RMK A01 T00810017  RH  064%=      5-min Rain = 0
KWE1 150027Z 15007KT 08/02 A3022 RMK A01 T00810016  RH  063%=      5-min Rain = 0
KWE1 150028Z 15007KT 08/02 A3022 RMK A01 T00810016  RH  064%=      5-min Rain = 0
KWE1 150029Z 15007KT 08/02 A3021 RMK A01 T00800016  RH  064%=      5-min Rain = 0
KWE1 150030Z 15007KT 08/02 A3021 RMK A01 T00790017  RH  065%=      5-min Rain = 0
KWE1 150031Z 16006KT 08/02 A3021 RMK A01 T00780017  RH  065%=      5-min Rain = 0
KWE1 150032Z 16006KT 08/02 A3021 RMK A01 T00770018  RH  066%=      5-min Rain = 0
KWE1 150033Z 16008KT 08/02 A3021 RMK A01 T00760018  RH  066%=      5-min Rain = 0
KWE1 150034Z 15008KT 08/02 A3022 RMK A01 T00760016  RH  066%=      5-min Rain = 0
KWE1 150035Z 15008KT 08/02 A3022 RMK A01 T00760015  RH  065%=      5-min Rain = 0
KWE1 150036Z 16008KT 08/01 A3022 RMK A01 T00760012  RH  064%=      5-min Rain = 0
KWE1 150037Z 16007KT 08/01 A3022 RMK A01 T00770013  RH  064%=      5-min Rain = 0
KWE1 150038Z 16007KT 08/01 A3021 RMK A01 T00770013  RH  064%=      5-min Rain = 0
KWE1 150039Z 16007KT 08/02 A3021 RMK A01 T00770015  RH  065%=      5-min Rain = 0
KWE1 150040Z 15008KT 08/02 A3021 RMK A01 T00760015  RH  065%=      5-min Rain = 0
KWE1 150041Z 16008KT 08/01 A3021 RMK A01 T00750012  RH  064%=      5-min Rain = 0
KWE1 150042Z 16008KT 08/01 A3021 RMK A01 T00760010  RH  063%=      5-min Rain = 0
KWE1 150043Z 15008KT 08/01 A3021 RMK A01 T00770010  RH  063%=      5-min Rain = 0
KWE1 150044Z 15009KT 08/01 A3021 RMK A01 T00780010  RH  062%=      5-min Rain = 0
KWE1 150045Z 15008KT 08/01 A3021 RMK A01 T00780010  RH  062%=      5-min Rain = 0
KWE1 150046Z 16007KT 08/01 A3021 RMK A01 T00780010  RH  062%=      5-min Rain = 0
KWE1 150047Z 15006KT 08/01 A3021 RMK A01 T00780010  RH  062%=      5-min Rain = 0
KWE1 150048Z 15006KT 08/01 A3021 RMK A01 T00780010  RH  062%=      5-min Rain = 0
KWE1 150049Z 15006KT 08/01 A3021 RMK A01 T00790011  RH  062%=      5-min Rain = 0
KWE1 150050Z 15007KT 08/01 A3021 RMK A01 T00770010  RH  063%=      5-min Rain = 0
KWE1 150051Z 15006KT 08/01 A3021 RMK A01 T00760011  RH  063%=      5-min Rain = 0
KWE1 150052Z 15006KT 08/01 A3021 RMK A01 T00750012  RH  064%=      5-min Rain = 0
KWE1 150053Z 15007KT 07/01 A3021 RMK A01 T00740013  RH  065%=      5-min Rain = 0
KWE1 150054Z 15008KT 07/01 A3021 RMK A01 T00740011  RH  064%=      5-min Rain = 0
KWE1 150055Z 15008KT 07/01 A3021 RMK A01 T00740009  RH  063%=      5-min Rain = 0
KWE1 150056Z 15008KT 08/01 A3021 RMK A01 T00750009  RH  063%=      5-min Rain = 0
KWE1 150057Z 15007KT 08/01 A3021 RMK A01 T00750010  RH  063%=      5-min Rain = 0
KWE1 150058Z 15007KT 08/01 A3021 RMK A01 T00750011  RH  064%=      5-min Rain = 0
KWE1 150059Z 16007KT 07/01 A3021 RMK A01 T00740010  RH  064%=      5-min Rain = 0
KWE1 150100Z 15007KT 07/01 A3021 RMK A01 T00740010  RH  064%=      5-min Rain = 0
KWE1 150101Z 15008KT 07/01 A3021 RMK A01 T00740009  RH  064%=      5-min Rain = 0
KWE1 150102Z 15008KT 07/01 A3021 RMK A01 T00730009  RH  064%=      5-min Rain = 0
KWE1 150103Z 15007KT 07/01 A3021 RMK A01 T00730009  RH  064%=      5-min Rain = 0
KWE1 150104Z 15008KT 07/01 A3021 RMK A01 T00730009  RH  064%=      5-min Rain = 0
KWE1 150105Z 15007KT 07/01 A3021 RMK A01 T00720009  RH  064%=      5-min Rain = 0
KWE1 150106Z 15007KT 07/01 A3021 RMK A01 T00720010  RH  065%=      5-min Rain = 0
KWE1 150107Z 15007KT 07/01 A3021 RMK A01 T00710011  RH  066%=      5-min Rain = 0
KWE1 150108Z 15007KT 07/01 A3021 RMK A01 T00700011  RH  066%=      5-min Rain = 0
KWE1 150109Z 15008KT 07/01 A3021 RMK A01 T00700010  RH  066%=      5-min Rain = 0
KWE1 150110Z 15009KT 07/01 A3021 RMK A01 T00700010  RH  066%=      5-min Rain = 0
KWE1 150111Z 15008KT 07/01 A3021 RMK A01 T00700009  RH  065%=      5-min Rain = 0
KWE1 150112Z 15007KT 07/01 A3021 RMK A01 T00710010  RH  065%=      5-min Rain = 0
KWE1 150113Z 14007KT 07/01 A3021 RMK A01 T00710011  RH  066%=      5-min Rain = 0
KWE1 150114Z 14007KT 07/01 A3021 RMK A01 T00700011  RH  066%=      5-min Rain = 0
KWE1 150115Z 14006KT 07/01 A3021 RMK A01 T00690010  RH  066%=      5-min Rain = 0
KWE1 150116Z 15007KT 07/01 A3021 RMK A01 T00690010  RH  066%=      5-min Rain = 0
KWE1 150117Z 15008KT 07/01 A3021 RMK A01 T00690008  RH  065%=      5-min Rain = 0
KWE1 150118Z 14008KT 07/01 A3021 RMK A01 T00690008  RH  065%=      5-min Rain = 0
KWE1 150119Z 15008KT 07/01 A3021 RMK A01 T00700008  RH  065%=      5-min Rain = 0
KWE1 150120Z 15008KT 07/01 A3021 RMK A01 T00700008  RH  065%=      5-min Rain = 0
KWE1 150121Z 15008KT 07/01 A3021 RMK A01 T00700008  RH  065%=      5-min Rain = 0
KWE1 150122Z 15008KT 07/01 A3021 RMK A01 T00700008  RH  065%=      5-min Rain = 0
KWE1 150123Z 15008KT 07/01 A3021 RMK A01 T00690008  RH  065%=      5-min Rain = 0
KWE1 150124Z 15008KT 07/01 A3021 RMK A01 T00690008  RH  065%=      5-min Rain = 0
KWE1 150125Z 15008KT 07/01 A3021 RMK A01 T00690008  RH  065%=      5-min Rain = 0
KWE1 150126Z 15007KT 07/01 A3021 RMK A01 T00690008  RH  065%=      5-min Rain = 0
KWE1 150127Z 15008KT 07/01 A3021 RMK A01 T00690007  RH  065%=      5-min Rain = 0
KWE1 150128Z 15008KT 07/01 A3021 RMK A01 T00690007  RH  065%=      5-min Rain = 0
KWE1 150129Z 15009KT 07/01 A3021 RMK A01 T00690006  RH  064%=      5-min Rain = 0
KWE1 150130Z 15007KT 07/01 A3021 RMK A01 T00690006  RH  064%=      5-min Rain = 0
KWE1 150131Z 15008KT 07/01 A3021 RMK A01 T00690006  RH  064%=      5-min Rain = 0
KWE1 150132Z 15008KT 07/01 A3021 RMK A01 T00690006  RH  064%=      5-min Rain = 0
KWE1 150133Z 15008KT 07/01 A3021 RMK A01 T00690005  RH  064%=      5-min Rain = 0
KWE1 150134Z 15008KT 07/01 A3021 RMK A01 T00690005  RH  064%=      5-min Rain = 0
KWE1 150135Z 15009KT 07/01 A3021 RMK A01 T00690006  RH  064%=      5-min Rain = 0
KWE1 150136Z 15008KT 07/01 A3021 RMK A01 T00690005  RH  064%=      5-min Rain = 0
KWE1 150137Z 15009KT 07/01 A3021 RMK A01 T00690006  RH  064%=      5-min Rain = 0
KWE1 150138Z 15008KT 07/01 A3021 RMK A01 T00690005  RH  064%=      5-min Rain = 0
KWE1 150139Z 15008KT 07/01 A3021 RMK A01 T00690006  RH  064%=      5-min Rain = 0
KWE1 150140Z 15009KT 07/01 A3021 RMK A01 T00690005  RH  064%=      5-min Rain = 0
KWE1 150141Z 15009KT 07/01 A3021 RMK A01 T00690005  RH  064%=      5-min Rain = 0
KWE1 150142Z 15009KT 07/01 A3021 RMK A01 T00690005  RH  064%=      5-min Rain = 0
KWE1 150143Z 15008KT 07/01 A3021 RMK A01 T00690005  RH  064%=      5-min Rain = 0
KWE1 150144Z 15008KT 07/01 A3021 RMK A01 T00690006  RH  064%=      5-min Rain = 0
KWE1 150145Z 15008KT 07/01 A3021 RMK A01 T00690005  RH  064%=      5-min Rain = 0
KWE1 150146Z 15007KT 07/01 A3021 RMK A01 T00680005  RH  064%=      5-min Rain = 0
KWE1 150147Z 15007KT 07/01 A3021 RMK A01 T00670006  RH  065%=      5-min Rain = 0
KWE1 150148Z 15008KT 07/01 A3021 RMK A01 T00670005  RH  065%=      5-min Rain = 0
KWE1 150149Z 15007KT 07/01 A3021 RMK A01 T00660005  RH  065%=      5-min Rain = 0
KWE1 150150Z 15008KT 07/01 A3021 RMK A01 T00660005  RH  065%=      5-min Rain = 0
KWE1 150151Z 16008KT 07/01 A3021 RMK A01 T00660005  RH  065%=      5-min Rain = 0
KWE1 150152Z 15007KT 07/00 A3021 RMK A01 T00660004  RH  065%=      5-min Rain = 0
KWE1 150153Z 15008KT 07/00 A3021 RMK A01 T00660004  RH  065%=      5-min Rain = 0
KWE1 150154Z 15008KT 07/00 A3021 RMK A01 T00660004  RH  065%=      5-min Rain = 0
KWE1 150155Z 15008KT 07/00 A3021 RMK A01 T00650004  RH  065%=      5-min Rain = 0
KWE1 150156Z 15008KT 07/00 A3021 RMK A01 T00650004  RH  065%=      5-min Rain = 0
KWE1 150157Z 15008KT 07/00 A3021 RMK A01 T00650004  RH  065%=      5-min Rain = 0
KWE1 150158Z 14007KT 07/00 A3021 RMK A01 T00650003  RH  064%=      5-min Rain = 0
KWE1 150159Z 15007KT 07/00 A3021 RMK A01 T00650004  RH  065%=      5-min Rain = 0
KWE1 150200Z 15008KT 06/00 A3021 RMK A01 T00640004  RH  065%=      5-min Rain = 0
KWE1 150201Z 14008KT 06/00 A3022 RMK A01 T00640004  RH  066%=      5-min Rain = 0
KWE1 150202Z 15007KT 06/00 A3022 RMK A01 T00630004  RH  066%=      5-min Rain = 0
KWE1 150203Z 14007KT 06/00 A3022 RMK A01 T00620004  RH  066%=      5-min Rain = 0
KWE1 150204Z 14008KT 06/00 A3022 RMK A01 T00610004  RH  067%=      5-min Rain = 0
KWE1 150205Z 14007KT 06/00 A3022 RMK A01 T00600004  RH  067%=      5-min Rain = 0
KWE1 150206Z 14008KT 06/00 A3022 RMK A01 T00590004  RH  068%=      5-min Rain = 0
KWE1 150207Z 14009KT 06/00 A3021 RMK A01 T00580004  RH  068%=      5-min Rain = 0
KWE1 150208Z 14009KT 06/00 A3021 RMK A01 T00580004  RH  068%=      5-min Rain = 0
KWE1 150209Z 15009KT 06/00 A3021 RMK A01 T00580003  RH  068%=      5-min Rain = 0
KWE1 150210Z 15008KT 06/00 A3021 RMK A01 T00580003  RH  068%=      5-min Rain = 0
KWE1 150211Z 15008KT 06/00 A3021 RMK A01 T00590003  RH  068%=      5-min Rain = 0
KWE1 150212Z 15007KT 06/00 A3021 RMK A01 T00590003  RH  067%=      5-min Rain = 0
KWE1 150213Z 15008KT 06/00 A3021 RMK A01 T00590004  RH  067%=      5-min Rain = 0
KWE1 150214Z 15008KT 06/00 A3021 RMK A01 T00590003  RH  067%=      5-min Rain = 0
KWE1 150215Z 15008KT 06/00 A3021 RMK A01 T00600003  RH  067%=      5-min Rain = 0
KWE1 150216Z 16008KT 06/00 A3021 RMK A01 T00600003  RH  067%=      5-min Rain = 0
KWE1 150217Z 15008KT 06/00 A3021 RMK A01 T00600003  RH  067%=      5-min Rain = 0
KWE1 150218Z 15009KT 06/00 A3021 RMK A01 T00590003  RH  067%=      5-min Rain = 0
KWE1 150219Z 15008KT 06/00 A3021 RMK A01 T00590003  RH  067%=      5-min Rain = 0
KWE1 150220Z 15008KT 06/00 A3021 RMK A01 T00580004  RH  068%=      5-min Rain = 0
KWE1 150221Z 15009KT 06/00 A3021 RMK A01 T00580004  RH  068%=      5-min Rain = 0
KWE1 150222Z 15009KT 06/00 A3021 RMK A01 T00580003  RH  068%=      5-min Rain = 0
KWE1 150223Z 15008KT 06/00 A3021 RMK A01 T00580003  RH  068%=      5-min Rain = 0
KWE1 150224Z 15009KT 06/00 A3021 RMK A01 T00580003  RH  067%=      5-min Rain = 0
KWE1 150225Z 15008KT 06/00 A3021 RMK A01 T00580003  RH  068%=      5-min Rain = 0
KWE1 150226Z 15009KT 06/00 A3021 RMK A01 T00590003  RH  068%=      5-min Rain = 0
KWE1 150227Z 15008KT 06/00 A3021 RMK A01 T00580002  RH  067%=      5-min Rain = 0
KWE1 150228Z 15008KT 06/00 A3021 RMK A01 T00590002  RH  067%=      5-min Rain = 0
KWE1 150229Z 15008KT 06/00 A3021 RMK A01 T00590002  RH  067%=      5-min Rain = 0
KWE1 150230Z 14007KT 06/00 A3021 RMK A01 T00590002  RH  067%=      5-min Rain = 0
KWE1 150231Z 15008KT 06/00 A3021 RMK A01 T00590002  RH  067%=      5-min Rain = 0
KWE1 150232Z 14008KT 06/00 A3021 RMK A01 T00590002  RH  067%=      5-min Rain = 0
KWE1 150233Z 15008KT 06/00 A3021 RMK A01 T00590002  RH  067%=      5-min Rain = 0
KWE1 150234Z 15008KT 06/00 A3021 RMK A01 T00590003  RH  067%=      5-min Rain = 0
KWE1 150235Z 15008KT 06/00 A3021 RMK A01 T00580003  RH  068%=      5-min Rain = 0
KWE1 150236Z 15008KT 06/00 A3021 RMK A01 T00580003  RH  068%=      5-min Rain = 0
KWE1 150237Z 14008KT 06/00 A3021 RMK A01 T00570002  RH  068%=      5-min Rain = 0
KWE1 150238Z 14007KT 06/00 A3021 RMK A01 T00580002  RH  068%=      5-min Rain = 0
KWE1 150239Z 15008KT 06/00 A3021 RMK A01 T00580002  RH  068%=      5-min Rain = 0
KWE1 150240Z 15008KT 06/00 A3021 RMK A01 T00570002  RH  068%=      5-min Rain = 0
KWE1 150241Z 15008KT 06/00 A3021 RMK A01 T00570003  RH  068%=      5-min Rain = 0
KWE1 150242Z 15008KT 06/00 A3021 RMK A01 T00570003  RH  068%=      5-min Rain = 0
KWE1 150243Z 14008KT 06/00 A3021 RMK A01 T00580003  RH  068%=      5-min Rain = 0
KWE1 150244Z 15009KT 06/00 A3021 RMK A01 T00580003  RH  068%=      5-min Rain = 0
KWE1 150245Z 14010KT 06/00 A3021 RMK A01 T00570002  RH  068%=      5-min Rain = 0
KWE1 150246Z 14010KT 06/00 A3021 RMK A01 T00580002  RH  068%=      5-min Rain = 0
KWE1 150247Z 14010KT 06/00 A3021 RMK A01 T00580002  RH  067%=      5-min Rain = 0
KWE1 150248Z 14009KT 06/00 A3021 RMK A01 T00590002  RH  067%=      5-min Rain = 0
KWE1 150249Z 15011KT 06/00 A3021 RMK A01 T00590002  RH  067%=      5-min Rain = 0
KWE1 150250Z 14010KT 06/00 A3021 RMK A01 T00600002  RH  066%=      5-min Rain = 0
KWE1 150251Z 14010KT 06/00 A3021 RMK A01 T00600003  RH  067%=      5-min Rain = 0
KWE1 150252Z 15009KT 06/00 A3021 RMK A01 T00600003  RH  067%=      5-min Rain = 0
KWE1 150253Z 14009KT 06/00 A3021 RMK A01 T00590003  RH  067%=      5-min Rain = 0
KWE1 150254Z 15009KT 06/00 A3021 RMK A01 T00590003  RH  067%=      5-min Rain = 0
KWE1 150255Z 15010KT 06/00 A3021 RMK A01 T00590003  RH  067%=      5-min Rain = 0
KWE1 150256Z 15010KT 06/00 A3021 RMK A01 T00590002  RH  067%=      5-min Rain = 0
KWE1 150257Z 15010KT 06/00 A3021 RMK A01 T00600003  RH  067%=      5-min Rain = 0
KWE1 150258Z 15011KT 06/00 A3021 RMK A01 T00600002  RH  066%=      5-min Rain = 0
KWE1 150259Z 15011KT 06/00 A3021 RMK A01 T00610002  RH  066%=      5-min Rain = 0
KWE1 150300Z 15010KT 06/00 A3021 RMK A01 T00630003  RH  065%=      5-min Rain = 0
KWE1 150301Z 15010KT 06/00 A3021 RMK A01 T00630003  RH  065%=      5-min Rain = 0
KWE1 150302Z 15010KT 06/00 A3021 RMK A01 T00630003  RH  065%=      5-min Rain = 0
KWE1 150303Z 15010KT 06/00 A3021 RMK A01 T00630002  RH  065%=      5-min Rain = 0
KWE1 150304Z 15011KT 06/00 A3021 RMK A01 T00630002  RH  065%=      5-min Rain = 0
KWE1 150305Z 15010KT 06/00 A3021 RMK A01 T00630002  RH  065%=      5-min Rain = 0
KWE1 150306Z 15008KT 06/00 A3021 RMK A01 T00640003  RH  065%=      5-min Rain = 0
KWE1 150307Z 15009KT 06/00 A3021 RMK A01 T00620003  RH  066%=      5-min Rain = 0
KWE1 150308Z 15010KT 06/00 A3021 RMK A01 T00610003  RH  066%=      5-min Rain = 0
KWE1 150309Z 15010KT 06/00 A3021 RMK A01 T00610002  RH  066%=      5-min Rain = 0
KWE1 150310Z 15009KT 06/00 A3021 RMK A01 T00620003  RH  066%=      5-min Rain = 0
KWE1 150311Z 15010KT 06/00 A3021 RMK A01 T00620002  RH  066%=      5-min Rain = 0
KWE1 150312Z 15010KT 06/00 A3021 RMK A01 T00610003  RH  066%=      5-min Rain = 0
KWE1 150313Z 15010KT 06/00 A3021 RMK A01 T00610003  RH  066%=      5-min Rain = 0
KWE1 150314Z 15010KT 06/00 A3021 RMK A01 T00610002  RH  066%=      5-min Rain = 0
KWE1 150315Z 15009KT 06/00 A3021 RMK A01 T00610002  RH  066%=      5-min Rain = 0
KWE1 150316Z 15009KT 06/00 A3021 RMK A01 T00610003  RH  066%=      5-min Rain = 0
KWE1 150317Z 15010KT 06/00 A3021 RMK A01 T00590002  RH  067%=      5-min Rain = 0
KWE1 150318Z 15011KT 06/00 A3021 RMK A01 T00590002  RH  067%=      5-min Rain = 0
KWE1 150319Z 15011KT 06/00 A3021 RMK A01 T00580002  RH  067%=      5-min Rain = 0
KWE1 150320Z 15010KT 06/00 A3021 RMK A01 T00580002  RH  068%=      5-min Rain = 0
KWE1 150321Z 15009KT 06/00 A3021 RMK A01 T00560002  RH  068%=      5-min Rain = 0
KWE1 150322Z 15011KT 06/00 A3021 RMK A01 T00550002  RH  069%=      5-min Rain = 0
KWE1 150323Z 15011KT 06/00 A3021 RMK A01 T00550002  RH  069%=      5-min Rain = 0
KWE1 150324Z 15011KT 05/00 A3021 RMK A01 T00540002  RH  069%=      5-min Rain = 0
KWE1 150325Z 15011KT 05/00 A3021 RMK A01 T00530002  RH  070%=      5-min Rain = 0
KWE1 150326Z 15011KT 05/00 A3021 RMK A01 T00530002  RH  070%=      5-min Rain = 0
KWE1 150327Z 15012KT 05/00 A3021 RMK A01 T00530002  RH  070%=      5-min Rain = 0
KWE1 150328Z 15012KT 05/00 A302 RMK A01 T00530002  RH  069%=      5-min Rain = 0
KWE1 150329Z 15012KT 06/00 A302 RMK A01 T00550002  RH  069%=      5-min Rain = 0
KWE1 150330Z 15012KT 06/00 A302 RMK A01 T00550002  RH  069%=      5-min Rain = 0
KWE1 150331Z 15012KT 06/00 A302 RMK A01 T00550002  RH  069%=      5-min Rain = 0
KWE1 150332Z 15012KT 06/00 A302 RMK A01 T00550002  RH  069%=      5-min Rain = 0
KWE1 150333Z 16012KT 06/00 A302 RMK A01 T00550002  RH  069%=      5-min Rain = 0
KWE1 150334Z 15011KT 06/00 A302 RMK A01 T00550002  RH  069%=      5-min Rain = 0
KWE1 150335Z 16011KT 05/00 A302 RMK A01 T00540002  RH  069%=      5-min Rain = 0
KWE1 150336Z 15011KT 05/00 A302 RMK A01 T00530002  RH  070%=      5-min Rain = 0
KWE1 150337Z 16012KT 05/00 A302 RMK A01 T00530002  RH  070%=      5-min Rain = 0
KWE1 150338Z 15011KT 05/00 A302 RMK A01 T00530002  RH  070%=      5-min Rain = 0
KWE1 150339Z 15012KT 05/00 A302 RMK A01 T00530002  RH  070%=      5-min Rain = 0
KWE1 150340Z 15012KT 05/00 A302 RMK A01 T00530002  RH  070%=      5-min Rain = 0
KWE1 150341Z 16012KT 05/00 A302 RMK A01 T00530002  RH  070%=      5-min Rain = 0
KWE1 150342Z 15012KT 05/00 A302 RMK A01 T00530002  RH  070%=      5-min Rain = 0
KWE1 150343Z 15011KT 05/00 A302 RMK A01 T00530002  RH  069%=      5-min Rain = 0
KWE1 150344Z 15012KT 05/00 A302 RMK A01 T00530002  RH  070%=      5-min Rain = 0
KWE1 150345Z 15013KT 05/00 A302 RMK A01 T00540003  RH  070%=      5-min Rain = 0
KWE1 150346Z 16013KT 05/00 A302 RMK A01 T00530002  RH  069%=      5-min Rain = 0
KWE1 150347Z 15014KT 05/00 A302 RMK A01 T00530002  RH  069%=      5-min Rain = 0
KWE1 150348Z 15012KT 05/00 A302 RMK A01 T00540002  RH  069%=      5-min Rain = 0
KWE1 150349Z 15012KT 05/00 A302 RMK A01 T00540002  RH  069%=      5-min Rain = 0
KWE1 150350Z 15013KT 05/00 A302 RMK A01 T00530002  RH  070%=      5-min Rain = 0
KWE1 150351Z 15012KT 05/00 A3019 RMK A01 T00520002  RH  070%=      5-min Rain = 0
KWE1 150352Z 15012KT 05/00 A3019 RMK A01 T00520003  RH  070%=      5-min Rain = 0
KWE1 150353Z 16014KT 05/00 A3019 RMK A01 T00510002  RH  070%=      5-min Rain = 0
KWE1 150354Z 16012KT 05/00 A3019 RMK A01 T00520002  RH  070%=      5-min Rain = 0
KWE1 150355Z 15012KT 05/00 A3019 RMK A01 T00520003  RH  070%=      5-min Rain = 0
KWE1 150356Z 15013KT 05/00 A3019 RMK A01 T00520003  RH  070%=      5-min Rain = 0
KWE1 150357Z 16012KT 05/00 A3019 RMK A01 T00520003  RH  070%=      5-min Rain = 0
KWE1 150358Z 15013KT 05/00 A3019 RMK A01 T00520003  RH  071%=      5-min Rain = 0
KWE1 150359Z 16011KT 05/00 A3019 RMK A01 T00520003  RH  071%=      5-min Rain = 0
KWE1 150400Z 15012KT 05/00 A3019 RMK A01 T00520003  RH  071%=      5-min Rain = 0
KWE1 150401Z 15012KT 05/00 A3019 RMK A01 T00520003  RH  071%=      5-min Rain = 0
KWE1 150402Z 16012KT 05/00 A3019 RMK A01 T00520003  RH  071%=      5-min Rain = 0
KWE1 150403Z 16012KT 05/00 A3019 RMK A01 T00510003  RH  071%=      5-min Rain = 0
KWE1 150404Z 16012KT 05/00 A3019 RMK A01 T00510003  RH  071%=      5-min Rain = 0
KWE1 150405Z 15012KT 05/00 A3019 RMK A01 T00510003  RH  071%=      5-min Rain = 0
KWE1 150406Z 16013KT 05/00 A3019 RMK A01 T00520003  RH  071%=      5-min Rain = 0
KWE1 150407Z 16014G19KT 05/00 A3019 RMK A01 T00520003  RH  071%=      5-min Rain = 0
KWE1 150408Z 16012KT 05/00 A3019 RMK A01 T00520003  RH  071%=      5-min Rain = 0
KWE1 150409Z 16013KT 05/00 A3019 RMK A01 T00520003  RH  071%=      5-min Rain = 0
KWE1 150410Z 15013KT 05/00 A3019 RMK A01 T00520003  RH  071%=      5-min Rain = 0
KWE1 150411Z 16013KT 05/00 A3019 RMK A01 T00520003  RH  071%=      5-min Rain = 0
KWE1 150412Z 16012KT 05/00 A3019 RMK A01 T00530003  RH  070%=      5-min Rain = 0
KWE1 150413Z 16012KT 05/00 A3019 RMK A01 T00530003  RH  070%=      5-min Rain = 0
KWE1 150414Z 16012KT 05/00 A3019 RMK A01 T00530003  RH  070%=      5-min Rain = 0
KWE1 150415Z 16012KT 05/00 A3019 RMK A01 T00520004  RH  071%=      5-min Rain = 0
KWE1 150416Z 16013KT 05/00 A3019 RMK A01 T00520004  RH  071%=      5-min Rain = 0
KWE1 150417Z 16014KT 05/00 A3019 RMK A01 T00510004  RH  071%=      5-min Rain = 0
KWE1 150418Z 16013KT 05/00 A3019 RMK A01 T00520004  RH  071%=      5-min Rain = 0
KWE1 150419Z 16012KT 05/00 A3019 RMK A01 T00520003  RH  071%=      5-min Rain = 0
KWE1 150420Z 16012KT 05/00 A3019 RMK A01 T00520004  RH  071%=      5-min Rain = 0
KWE1 150421Z 16011KT 05/00 A3019 RMK A01 T00520004  RH  071%=      5-min Rain = 0
KWE1 150422Z 16013KT 05/00 A3019 RMK A01 T00510004  RH  072%=      5-min Rain = 0
KWE1 150423Z 16013KT 05/00 A3019 RMK A01 T00520004  RH  072%=      5-min Rain = 0
KWE1 150424Z 16012KT 05/00 A3019 RMK A01 T00520004  RH  071%=      5-min Rain = 0
KWE1 150425Z 16012KT 05/00 A3019 RMK A01 T00520004  RH  071%=      5-min Rain = 0
KWE1 150426Z 16012KT 05/01 A3019 RMK A01 T00520005  RH  071%=      5-min Rain = 0
KWE1 150427Z 16012KT 05/01 A3019 RMK A01 T00520005  RH  071%=      5-min Rain = 0
KWE1 150428Z 16012KT 05/01 A3019 RMK A01 T00520005  RH  072%=      5-min Rain = 0
KWE1 150429Z 16012KT 05/01 A3019 RMK A01 T00510005  RH  072%=      5-min Rain = 0
KWE1 150430Z 16014KT 05/01 A3019 RMK A01 T00510005  RH  072%=      5-min Rain = 0
KWE1 150431Z 16012KT 05/01 A3019 RMK A01 T00520005  RH  072%=      5-min Rain = 0
KWE1 150432Z 16012KT 05/01 A3019 RMK A01 T00520005  RH  072%=      5-min Rain = 0
KWE1 150433Z 16013KT 05/01 A3019 RMK A01 T00530006  RH  072%=      5-min Rain = 0
KWE1 150434Z 16013KT 05/01 A3019 RMK A01 T00530005  RH  071%=      5-min Rain = 0
KWE1 150435Z 16012KT 05/01 A3019 RMK A01 T00540006  RH  071%=      5-min Rain = 0
KWE1 150436Z 16011KT 05/01 A3019 RMK A01 T00540006  RH  071%=      5-min Rain = 0
KWE1 150437Z 16012KT 05/01 A3019 RMK A01 T00530006  RH  071%=      5-min Rain = 0
KWE1 150438Z 16011KT 05/01 A3019 RMK A01 T00530006  RH  072%=      5-min Rain = 0
KWE1 150439Z 16011KT 05/01 A3019 RMK A01 T00520006  RH  072%=      5-min Rain = 0
KWE1 150440Z 16012KT 05/01 A3019 RMK A01 T00520006  RH  072%=      5-min Rain = 0
KWE1 150441Z 16012KT 05/01 A3019 RMK A01 T00520006  RH  072%=      5-min Rain = 0
KWE1 150442Z 16013KT 05/01 A3019 RMK A01 T00530006  RH  072%=      5-min Rain = 0
KWE1 150443Z 16011KT 05/01 A3019 RMK A01 T00540006  RH  071%=      5-min Rain = 0
KWE1 150444Z 16011KT 05/01 A3019 RMK A01 T00540006  RH  071%=      5-min Rain = 0
KWE1 150445Z 16012KT 05/01 A3019 RMK A01 T00530006  RH  072%=      5-min Rain = 0
KWE1 150446Z 16012KT 05/01 A3019 RMK A01 T00530006  RH  071%=      5-min Rain = 0
KWE1 150447Z 16012KT 05/01 A3019 RMK A01 T00540006  RH  071%=      5-min Rain = 0
KWE1 150448Z 16011KT 05/01 A3019 RMK A01 T00540006  RH  071%=      5-min Rain = 0
KWE1 150449Z 16012KT 05/01 A3019 RMK A01 T00540006  RH  071%=      5-min Rain = 0
KWE1 150450Z 17011KT 05/01 A3019 RMK A01 T00530006  RH  071%=      5-min Rain = 0
KWE1 150451Z 16011KT 05/01 A3019 RMK A01 T00530006  RH  072%=      5-min Rain = 0
KWE1 150452Z 16012KT 05/01 A3019 RMK A01 T00520006  RH  072%=      5-min Rain = 0
KWE1 150453Z 17011KT 05/01 A3019 RMK A01 T00520006  RH  072%=      5-min Rain = 0
KWE1 150454Z 16012KT 05/01 A3019 RMK A01 T00530006  RH  072%=      5-min Rain = 0
KWE1 150455Z 16012KT 05/01 A3019 RMK A01 T00530006  RH  072%=      5-min Rain = 0
KWE1 150456Z 17013KT 05/01 A3019 RMK A01 T00530006  RH  072%=      5-min Rain = 0
KWE1 150457Z 17011KT 05/01 A3019 RMK A01 T00530006  RH  071%=      5-min Rain = 0
KWE1 150458Z 16012KT 05/01 A3019 RMK A01 T00540006  RH  071%=      5-min Rain = 0
KWE1 150459Z 17011KT 05/01 A3019 RMK A01 T00540006  RH  071%=      5-min Rain = 0
KWE1 150500Z 17012KT 05/01 A3019 RMK A01 T00540006  RH  071%=      5-min Rain = 0
KWE1 150501Z 17011KT 05/01 A3019 RMK A01 T00540006  RH  071%=      5-min Rain = 0
KWE1 150502Z 16012KT 05/01 A3018 RMK A01 T00540006  RH  071%=      5-min Rain = 0
KWE1 150503Z 17013KT 06/01 A3018 RMK A01 T00550006  RH  071%=      5-min Rain = 0
KWE1 150504Z 17011KT 06/01 A3019 RMK A01 T00560007  RH  071%=      5-min Rain = 0
KWE1 150505Z 17012KT 06/01 A3019 RMK A01 T00560007  RH  071%=      5-min Rain = 0
KWE1 150506Z 16011KT 06/01 A3018 RMK A01 T00560007  RH  071%=      5-min Rain = 0
KWE1 150507Z 17012KT 06/01 A3018 RMK A01 T00560007  RH  071%=      5-min Rain = 0
KWE1 150508Z 17012KT 06/01 A3018 RMK A01 T00560007  RH  071%=      5-min Rain = 0
KWE1 150509Z 17012KT 06/01 A3018 RMK A01 T00560007  RH  070%=      5-min Rain = 0
KWE1 150510Z 17014KT 06/01 A3018 RMK A01 T00560006  RH  070%=      5-min Rain = 0
KWE1 150511Z 17011KT 06/01 A3018 RMK A01 T00570007  RH  070%=      5-min Rain = 0
KWE1 150512Z 17011KT 06/01 A3018 RMK A01 T00570007  RH  070%=      5-min Rain = 0
KWE1 150513Z 17012KT 06/01 A3018 RMK A01 T00570007  RH  070%=      5-min Rain = 0
KWE1 150514Z 17012KT 06/01 A3019 RMK A01 T00570007  RH  070%=      5-min Rain = 0
KWE1 150515Z 17014KT 06/01 A3018 RMK A01 T00570007  RH  070%=      5-min Rain = 0
KWE1 150516Z 17012KT 06/01 A3018 RMK A01 T00570007  RH  070%=      5-min Rain = 0
KWE1 150517Z 17013KT 06/01 A3018 RMK A01 T00570007  RH  070%=      5-min Rain = 0
KWE1 150518Z 17014KT 06/01 A3018 RMK A01 T00570007  RH  070%=      5-min Rain = 0
KWE1 150519Z 17013KT 06/01 A3018 RMK A01 T00580008  RH  070%=      5-min Rain = 0
KWE1 150520Z 18014KT 06/01 A3018 RMK A01 T00580008  RH  070%=      5-min Rain = 0
KWE1 150521Z 17014KT 06/01 A3018 RMK A01 T00590008  RH  070%=      5-min Rain = 0
KWE1 150522Z 17012KT 06/01 A3018 RMK A01 T00590008  RH  070%=      5-min Rain = 0
KWE1 150523Z 17013KT 06/01 A3018 RMK A01 T00590008  RH  069%=      5-min Rain = 0
KWE1 150524Z 18014KT 06/01 A3018 RMK A01 T00590008  RH  070%=      5-min Rain = 0
KWE1 150525Z 17015KT 06/01 A3018 RMK A01 T00590008  RH  070%=      5-min Rain = 0
KWE1 150526Z 17013KT 06/01 A3018 RMK A01 T00590008  RH  070%=      5-min Rain = 0
KWE1 150527Z 17014KT 06/01 A3018 RMK A01 T00590008  RH  070%=      5-min Rain = 0
KWE1 150528Z 17015KT 06/01 A3018 RMK A01 T00590008  RH  070%=      5-min Rain = 0
KWE1 150529Z 17014KT 06/01 A3018 RMK A01 T00590008  RH  070%=      5-min Rain = 0
KWE1 150530Z 17014KT 06/01 A3018 RMK A01 T00600008  RH  070%=      5-min Rain = 0
KWE1 150531Z 17013KT 06/01 A3018 RMK A01 T00600009  RH  070%=      5-min Rain = 0
KWE1 150532Z 17014KT 06/01 A3018 RMK A01 T00590008  RH  070%=      5-min Rain = 0
KWE1 150533Z 17014KT 06/01 A3018 RMK A01 T00590009  RH  070%=      5-min Rain = 0
KWE1 150534Z 17015KT 06/01 A3018 RMK A01 T00590008  RH  070%=      5-min Rain = 0
KWE1 150535Z 17014KT 06/01 A3017 RMK A01 T00590009  RH  070%=      5-min Rain = 0
KWE1 150536Z 17013KT 06/01 A3017 RMK A01 T00580009  RH  071%=      5-min Rain = 0
KWE1 150537Z 17015KT 06/01 A3017 RMK A01 T00570009  RH  071%=      5-min Rain = 0
KWE1 150538Z 17014KT 06/01 A3017 RMK A01 T00570009  RH  071%=      5-min Rain = 0
KWE1 150539Z 17013G18KT 06/01 A3017 RMK A01 T00570009  RH  071%=      5-min Rain = 0
KWE1 150540Z 17015KT 06/01 A3017 RMK A01 T00560009  RH  072%=      5-min Rain = 0
KWE1 150541Z 17014KT 06/01 A3017 RMK A01 T00560009  RH  072%=      5-min Rain = 0
KWE1 150542Z 17014KT 06/01 A3017 RMK A01 T00560009  RH  072%=      5-min Rain = 0
KWE1 150543Z 17013KT 06/01 A3017 RMK A01 T00560009  RH  072%=      5-min Rain = 0
KWE1 150544Z 17014KT 06/01 A3017 RMK A01 T00560009  RH  072%=      5-min Rain = 0
KWE1 150545Z 17014KT 06/01 A3017 RMK A01 T00560009  RH  072%=      5-min Rain = 0
KWE1 150546Z 17013KT 06/01 A3017 RMK A01 T00560010  RH  072%=      5-min Rain = 0
KWE1 150547Z 17013KT 06/01 A3017 RMK A01 T00550009  RH  072%=      5-min Rain = 0
KWE1 150548Z 17013KT 06/01 A3017 RMK A01 T00550009  RH  072%=      5-min Rain = 0
KWE1 150549Z 17013KT 06/01 A3017 RMK A01 T00550009  RH  072%=      5-min Rain = 0
KWE1 150550Z 17013KT 05/01 A3017 RMK A01 T00540009  RH  073%=      5-min Rain = 0
KWE1 150551Z 17014KT 05/01 A3017 RMK A01 T00540009  RH  073%=      5-min Rain = 0
KWE1 150552Z 17014KT 06/01 A3017 RMK A01 T00550010  RH  073%=      5-min Rain = 0
KWE1 150553Z 17014KT 06/01 A3016 RMK A01 T00550009  RH  072%=      5-min Rain = 0
KWE1 150554Z 17015KT 06/01 A3017 RMK A01 T00560009  RH  072%=      5-min Rain = 0
KWE1 150555Z 18014KT 06/01 A3017 RMK A01 T00560009  RH  072%=      5-min Rain = 0
KWE1 150556Z 17014KT 06/01 A3017 RMK A01 T00560010  RH  072%=      5-min Rain = 0
KWE1 150557Z 17014KT 06/01 A3016 RMK A01 T00560010  RH  072%=      5-min Rain = 0
KWE1 150558Z 18014KT 06/01 A3016 RMK A01 T00560010  RH  072%=      5-min Rain = 0
KWE1 150559Z 17013KT 06/01 A3016 RMK A01 T00560010  RH  072%=      5-min Rain = 0

Page generated in 0.0781 seconds.